GFSCGP_250_spd_000.txt.gz
Wind_Speed
51 52 54 55 56 60 58 60 61 61 60 64 64 62 66 65 70 70 71 72 73 73 75 70 66 61 53 44 44 46 44 46 48 48 49 51 53 56 57 57 59 60 63 64
56 56 58 59 62 63 63 64 65 67 64 65 69 64 70 70 69 75 75 75 76 79 76 64 66 60 49 46 46 45 46 48 49 50 52 54 56 58 59 60 61 62 65 67
61 61 63 66 66 67 69 69 70 71 69 71 71 67 72 73 75 74 77 76 78 77 71 64 65 57 48 47 46 46 46 49 51 53 55 57 59 61 63 63 63 65 68 73
64 66 67 70 69 72 71 73 76 78 77 76 75 69 71 76 76 78 78 76 78 76 70 68 60 53 49 49 47 48 50 50 53 55 58 59 61 64 63 64 65 70 74 77
69 70 66 67 72 71 70 73 75 77 77 78 76 78 69 76 77 81 78 79 78 77 72 63 54 51 51 50 48 51 52 54 55 57 60 60 63 64 65 66 71 76 80 83
72 73 74 76 76 76 75 78 79 82 83 79 79 86 70 76 76 75 78 80 77 73 63 55 50 50 51 49 50 54 55 56 57 60 62 62 64 66 69 71 77 82 86 90
80 78 78 81 84 86 86 87 88 89 90 85 85 89 74 75 78 79 79 78 77 66 56 50 50 53 51 50 53 56 57 59 59 62 64 65 66 69 72 76 81 87 90 94
89 89 91 91 88 91 91 92 91 93 90 84 79 74 73 78 79 76 75 72 67 55 46 48 53 53 52 52 55 58 59 60 62 64 66 68 69 71 75 80 85 89 95 98
88 83 89 81 87 87 83 83 88 86 82 84 79 73 73 72 68 68 63 61 51 43 45 52 53 54 53 55 56 59 59 60 64 65 68 70 72 75 80 85 90 92 99 100
76 78 83 76 77 80 80 77 79 80 76 78 66 65 61 60 55 49 49 56 50 46 47 51 53 54 55 56 57 60 59 62 64 66 70 71 76 81 84 89 91 97 102 103
79 86 80 75 68 73 79 74 66 71 66 65 59 56 58 54 46 42 49 59 54 49 50 54 55 56 58 57 59 59 60 63 65 67 69 75 79 85 88 92 93 102 104 105
88 93 84 80 76 78 74 72 71 67 62 65 54 44 44 46 47 52 56 60 55 52 53 59 58 58 59 59 61 60 61 64 66 66 72 79 82 86 91 95 98 104 106 109
97 101 94 87 76 75 74 73 75 73 70 53 53 44 45 51 57 62 62 57 55 54 58 62 60 61 61 61 62 61 62 66 66 70 75 81 85 88 93 96 103 104 108 112
101 105 101 89 89 87 81 80 79 75 69 54 57 52 54 57 64 66 67 58 53 59 63 63 63 63 62 62 63 62 63 66 68 73 78 83 86 92 97 99 104 107 109 111
114 106 102 93 94 98 89 83 82 79 64 67 58 54 55 66 72 71 63 60 58 63 67 65 64 65 64 63 63 61 63 66 71 76 80 84 89 95 99 104 106 107 111 108
118 118 105 103 95 100 99 92 82 76 73 68 66 54 66 77 74 81 67 63 61 64 70 67 68 65 65 63 62 61 63 69 73 78 83 87 93 98 101 104 107 108 111 111
122 125 118 112 101 108 111 82 88 88 74 73 72 58 77 75 81 81 74 68 71 66 65 66 68 66 64 61 61 63 66 70 76 81 85 90 96 101 102 105 109 109 109 113
121 124 128 120 116 112 91 98 96 91 82 79 76 65 77 79 83 82 72 73 74 68 68 66 65 63 62 62 63 65 68 73 79 83 88 94 97 102 103 107 109 111 109 110
125 128 123 128 125 116 111 103 105 102 92 86 81 75 79 81 87 77 73 79 70 68 67 64 62 62 62 63 65 69 73 78 82 87 92 96 101 104 106 108 109 110 109 106
116 125 127 120 126 126 110 111 111 110 94 95 90 83 86 90 82 71 84 76 72 68 66 63 64 64 64 66 68 73 77 81 85 91 94 98 101 104 107 108 108 109 110 101
106 119 126 127 128 129 123 114 114 113 93 102 96 93 93 91 85 82 80 75 74 71 68 67 66 66 65 68 71 75 80 83 88 93 96 100 103 105 108 106 109 107 108 93
90 104 116 125 129 126 121 121 114 115 107 110 106 101 95 92 88 85 83 79 76 73 72 71 71 70 69 70 74 78 83 86 90 94 98 101 104 106 107 107 109 110 107 88
80 94 106 120 121 120 119 119 117 114 116 114 110 103 98 94 90 86 84 82 79 77 78 76 74 74 73 74 77 82 84 88 94 96 99 102 104 107 107 108 107 109 102 85
74 87 97 108 108 107 106 115 123 119 113 117 113 111 104 99 94 88 86 83 81 80 79 79 78 75 75 77 80 82 87 93 95 98 102 103 106 107 109 106 108 107 92 77
70 83 90 95 107 111 104 105 113 120 111 109 111 110 107 103 100 92 87 84 83 81 80 80 77 76 79 81 83 86 89 93 96 100 102 106 108 108 108 103 107 104 82 71
67 74 83 87 112 116 109 112 110 113 113 105 111 111 110 106 102 97 91 87 85 84 83 82 80 79 81 85 85 87 90 94 97 100 103 106 108 105 106 103 104 100 77 66

GFSCGP_250_spd_003.txt.gz
Wind_Speed
50 50 53 55 55 56 56 56 58 60 59 58 62 63 62 60 63 68 68 66 66 69 72 71 73 74 71 70 64 64 57 45 45 47 47 47 45 46 45 48 51 53 54 57
51 52 57 57 58 60 61 60 63 63 63 62 64 66 64 67 64 69 73 72 73 71 74 74 76 78 74 70 68 63 52 43 47 48 49 47 47 48 46 50 53 56 57 60
58 59 60 61 63 64 66 66 68 68 68 67 69 64 68 70 71 74 77 76 74 75 75 75 78 78 74 70 66 60 47 43 46 50 51 48 49 50 49 52 56 58 60 63
63 65 67 68 69 72 70 73 73 75 76 74 75 67 68 75 78 76 76 78 77 78 78 79 77 78 75 69 64 56 43 44 48 51 51 51 51 51 53 56 58 61 63 64
71 73 77 75 77 80 77 80 81 81 80 76 71 76 65 71 75 77 79 80 83 82 80 77 77 77 76 68 58 52 43 44 48 52 52 53 53 53 57 60 61 62 64 68
73 75 74 76 77 76 77 79 83 85 84 81 76 88 67 71 74 80 83 83 85 82 78 74 74 73 69 64 56 48 43 46 50 52 52 54 55 56 59 62 65 65 68 70
81 81 81 83 85 86 87 87 89 88 87 83 83 90 75 81 82 81 85 87 85 82 76 79 76 66 62 58 48 44 45 47 51 53 54 54 55 58 62 65 66 68 71 74
87 88 93 92 91 95 94 95 96 98 98 94 91 84 80 85 85 78 77 80 83 82 80 77 66 59 54 48 46 47 49 51 52 53 55 56 58 60 64 67 69 71 74 79
82 78 91 91 94 97 94 92 100 98 92 89 81 80 78 80 81 80 78 73 74 68 69 64 56 51 48 48 48 49 51 53 54 55 56 57 61 63 66 68 70 73 77 81
79 79 84 83 86 85 89 93 98 95 83 82 63 70 67 69 68 67 65 64 66 59 64 59 51 49 48 49 51 52 53 55 56 58 58 59 63 65 68 70 72 75 81 85
87 94 78 90 77 84 93 91 89 89 82 82 69 62 66 66 62 60 60 61 61 55 62 57 51 53 53 53 53 53 55 56 57 59 60 62 65 67 69 72 75 79 84 88
91 95 78 87 86 88 83 79 90 91 89 90 68 46 66 63 60 58 58 57 58 56 59 54 52 56 59 56 55 56 57 59 59 61 62 64 66 67 70 74 77 82 86 90
94 97 95 79 86 93 90 97 100 95 93 80 68 50 66 67 66 62 60 62 62 58 58 55 58 59 61 60 57 57 60 61 61 62 64 65 66 68 71 75 79 84 87 91
99 98 101 96 95 101 100 99 96 98 93 73 73 66 73 72 71 70 67 66 63 61 57 58 64 62 60 60 59 60 61 62 63 64 65 65 66 69 72 77 81 86 89 94
105 107 106 103 102 106 106 98 98 103 87 88 71 72 76 78 78 73 73 72 70 64 59 62 69 63 58 60 62 63 64 63 64 64 65 64 66 70 74 79 83 87 91 94
109 114 113 111 110 106 108 110 101 96 94 85 87 71 87 82 82 83 84 78 74 66 63 68 73 69 61 62 64 64 65 65 65 65 65 64 67 72 77 81 86 89 93 95
114 117 118 117 115 117 104 100 107 109 93 90 84 75 95 91 90 89 90 83 78 70 68 70 72 74 68 64 64 65 64 63 63 63 64 65 69 74 79 83 87 92 94 98
110 116 122 121 120 121 108 113 108 113 108 100 94 91 105 96 96 100 94 88 82 76 74 73 70 73 69 66 66 65 62 61 63 64 66 67 72 76 81 85 90 92 94 99
111 114 119 121 120 121 115 111 118 116 103 111 101 96 105 109 105 102 97 95 87 87 83 74 71 70 67 65 65 64 63 62 64 66 68 71 75 79 83 88 91 94 95 100
99 105 110 115 118 117 111 113 115 117 105 110 112 105 105 108 114 91 99 99 94 89 86 81 76 72 68 65 64 63 63 63 66 68 71 73 79 81 85 89 93 96 96 101
84 87 96 101 107 108 103 116 113 108 105 104 109 111 107 110 107 101 102 97 93 90 88 83 77 72 68 67 66 67 66 66 69 72 74 77 81 84 88 91 95 98 100 104
70 77 79 85 91 89 96 106 109 101 105 109 107 105 110 108 106 104 100 101 99 96 90 85 81 76 72 71 70 69 70 70 73 74 77 80 83 87 90 94 98 100 103 103
58 66 69 71 74 78 81 86 96 94 101 104 103 101 109 107 102 102 103 101 97 97 93 90 85 79 76 74 73 74 75 73 74 75 78 82 86 89 92 96 100 102 105 100
42 56 59 70 63 71 70 77 86 99 98 101 106 99 89 101 105 104 102 102 100 95 91 88 86 82 79 77 75 74 75 76 77 79 81 83 86 90 94 99 103 106 102 100
50 60 65 69 59 74 66 76 86 96 96 101 103 102 101 106 98 101 107 102 99 96 91 89 86 83 79 77 76 78 79 79 79 82 84 86 88 91 97 102 105 105 102 100
57 59 68 53 65 68 66 73 82 93 97 99 92 85 76 85 97 103 97 95 92 93 92 88 87 85 82 81 82 81 81 82 82 84 84 86 91 95 99 103 106 103 99 100

GFSCGP_250_spd_009.txt.gz
Wind_Speed
47 49 55 54 53 55 57 58 58 61 65 66 64 61 63 63 58 62 64 64 64 66 69 66 67 68 71 74 75 74 75 77 76 78 78 75 70 65 64 56 49 45 42 44
50 52 57 56 56 59 60 61 63 66 71 67 66 60 62 66 63 63 65 67 68 68 69 70 71 71 73 78 79 77 76 77 79 82 79 77 71 68 66 56 50 46 43 45
53 58 62 62 61 62 63 64 69 70 74 70 70 62 63 66 67 68 70 74 73 71 71 72 74 75 77 79 79 77 78 80 81 85 81 75 73 73 67 58 51 47 45 48
54 59 59 61 64 70 67 73 73 73 75 72 78 66 64 65 66 74 78 79 78 78 79 80 80 80 79 79 78 79 81 81 85 87 80 78 77 73 62 55 47 46 47 50
58 63 67 70 73 77 74 81 81 82 83 84 77 83 59 67 69 76 82 82 82 84 85 85 82 81 80 82 82 82 83 86 89 85 81 78 73 63 54 45 42 46 47 51
67 69 68 70 74 78 80 84 87 89 90 90 80 91 70 73 73 78 85 88 87 87 84 83 84 86 86 84 84 85 90 92 87 83 75 70 62 54 47 42 45 48 49 52
68 71 75 80 83 87 91 95 97 96 97 92 93 98 75 75 79 82 82 88 87 87 86 85 86 87 87 89 89 91 88 85 80 70 70 63 55 49 43 44 46 49 51 53
66 64 69 74 78 81 81 86 92 99 99 96 97 88 76 82 85 86 88 92 90 91 90 89 90 91 93 94 91 83 82 75 66 68 65 55 47 43 43 45 48 50 53 55
74 70 74 78 84 89 89 89 93 102 98 103 92 85 82 81 83 88 92 96 98 99 97 96 95 93 91 85 77 71 71 73 65 65 63 49 44 43 45 47 52 53 54 57
79 81 81 85 90 93 99 99 103 107 109 110 99 95 82 81 84 89 90 90 92 93 92 90 89 86 83 77 73 73 73 71 62 60 58 47 45 45 47 52 55 55 56 58
89 91 82 90 92 96 103 107 111 117 119 118 112 93 86 86 85 88 91 92 94 96 95 93 91 88 82 76 74 74 74 70 61 58 57 52 48 50 52 54 57 56 58 61
99 103 99 95 100 105 109 116 121 126 122 126 123 106 99 97 96 94 93 92 94 99 97 95 91 89 86 81 76 73 71 68 60 59 57 55 54 55 55 56 58 58 60 62
105 108 113 106 110 114 119 123 124 126 128 126 123 112 107 103 103 103 97 95 96 97 99 95 92 89 85 80 75 71 69 69 63 63 61 58 58 57 57 59 59 61 63 64
118 118 124 124 121 121 121 122 125 129 125 121 117 109 88 96 104 102 101 102 101 102 99 98 94 93 89 83 81 82 77 75 70 69 65 64 62 60 60 60 61 64 65 67
116 118 117 117 116 114 117 118 119 124 123 126 113 122 103 99 96 97 103 104 106 103 100 99 96 92 91 87 83 85 83 81 77 75 71 68 66 65 65 65 66 67 68 70
112 118 120 119 118 121 120 115 114 117 122 127 122 113 114 103 95 102 106 103 105 104 102 100 97 94 91 89 87 86 85 83 80 78 76 71 67 67 69 69 68 68 69 70
100 101 113 114 112 121 118 106 105 108 113 120 119 115 110 105 94 102 106 106 104 103 101 101 97 93 92 90 86 83 82 78 74 71 71 71 73 73 71 70 69 70 70 71
108 103 100 104 105 105 98 97 103 104 108 115 113 117 114 108 98 97 103 107 104 100 101 100 99 94 93 90 86 87 84 80 74 73 74 76 75 74 73 73 72 72 72 72
110 103 90 83 85 86 71 83 84 86 93 104 111 112 110 107 100 103 99 103 103 102 100 101 99 97 93 89 88 86 82 74 70 70 70 72 72 74 75 75 74 73 71 74
104 96 87 76 75 70 68 75 74 76 77 90 100 108 104 102 101 103 107 99 104 105 100 103 102 99 94 91 92 88 84 78 73 72 69 70 74 77 75 76 74 71 72 73
89 85 80 75 71 65 69 66 67 68 68 74 84 90 95 93 93 100 106 99 99 104 104 101 103 102 96 93 92 87 82 76 73 70 70 69 70 72 74 72 70 71 73 77
83 81 74 67 63 62 62 59 60 60 60 63 67 73 79 80 80 88 102 101 101 100 103 103 103 100 97 96 90 85 81 75 72 70 71 68 69 70 71 72 71 74 77 78
80 79 69 61 53 53 52 51 51 50 52 56 56 62 65 67 69 73 89 99 98 96 99 107 104 101 97 94 90 82 80 75 72 73 69 68 68 69 72 72 73 74 75 77
78 68 65 55 54 43 49 51 42 43 43 46 49 54 59 61 59 60 76 85 90 94 100 96 97 93 93 93 90 84 79 78 76 72 69 68 69 71 70 70 71 73 72 73
71 63 57 54 48 43 43 43 43 39 35 35 39 44 53 55 55 57 67 74 78 85 88 87 87 85 82 83 85 82 78 76 74 72 71 70 70 71 69 69 71 71 71 75
64 61 54 46 41 36 39 37 36 34 37 34 34 37 44 52 54 56 60 67 75 77 74 73 74 71 64 63 61 70 70 70 70 71 71 72 73 68 67 69 70 70 72 74

GFSCGP_250_spd_012.txt.gz
Wind_Speed
47 48 55 56 55 54 53 53 54 59 63 59 57 53 56 62 56 58 61 63 63 63 67 65 66 66 66 67 68 69 70 72 72 72 73 72 74 74 74 77 76 73 70 64
51 52 55 56 57 57 57 58 59 62 67 61 60 52 54 58 58 60 62 63 67 68 70 69 70 69 68 69 70 73 74 74 74 75 73 74 76 75 77 80 78 76 70 62
53 58 61 63 64 65 65 66 69 69 72 69 69 59 62 62 63 63 65 68 69 71 73 72 71 71 70 71 75 76 76 77 77 75 76 77 75 76 80 81 78 72 64 55
54 61 64 64 67 72 68 76 76 78 80 78 79 68 64 64 64 67 69 74 75 76 76 77 77 76 76 76 77 78 80 79 76 78 79 76 76 79 82 79 74 66 59 53
61 63 65 65 68 72 74 78 81 83 85 84 79 86 63 71 73 76 80 82 83 84 85 84 84 84 82 81 81 81 81 80 80 80 79 78 79 82 80 74 66 62 56 50
61 65 67 70 74 79 82 84 86 89 92 90 81 96 71 76 77 81 85 89 93 96 94 93 94 94 91 88 85 85 83 82 82 82 80 81 83 83 73 67 62 60 54 48
59 63 67 73 75 79 83 87 90 94 97 94 96 102 77 79 83 86 87 88 93 97 96 94 94 95 94 93 93 90 86 84 84 83 84 86 84 77 65 64 62 56 53 45
58 58 69 74 77 80 84 88 93 98 95 95 97 91 81 86 84 86 88 89 90 97 97 96 95 98 98 96 94 92 91 90 88 86 87 82 76 68 63 62 58 54 50 44
73 70 73 78 84 89 92 97 103 108 97 104 90 88 84 85 87 87 89 91 93 95 93 93 95 96 96 95 95 93 91 91 90 85 80 78 75 68 62 60 56 53 50 48
76 75 78 83 85 90 96 97 102 108 114 112 102 99 90 92 95 93 93 94 97 96 93 96 101 100 100 97 95 93 90 88 86 81 79 78 75 69 64 61 55 54 53 51
78 80 75 85 90 95 100 104 113 117 118 125 118 101 97 99 99 98 98 100 103 105 98 100 102 100 99 98 94 90 87 87 85 82 78 78 76 69 64 60 57 54 54 54
85 91 90 91 96 103 110 113 118 122 125 132 136 120 98 101 102 103 100 99 101 106 110 105 103 105 103 98 94 87 88 85 83 81 79 78 76 68 62 58 55 56 57 57
94 100 103 96 102 109 114 117 125 132 137 136 142 138 120 113 110 116 112 103 109 113 110 106 109 109 108 105 101 96 89 87 86 84 82 78 75 68 64 61 60 59 59 61
109 112 115 115 117 114 114 118 125 135 142 146 147 144 133 120 122 116 109 102 110 113 112 116 112 113 111 109 104 98 95 90 87 85 83 78 72 71 70 67 65 64 64 64
104 107 110 113 115 113 107 102 104 113 123 133 125 134 131 127 121 114 112 106 102 108 109 112 119 120 115 111 107 101 97 95 90 86 82 77 73 73 73 71 69 67 67 63
104 112 119 112 115 104 97 99 109 110 112 118 129 127 133 130 122 116 107 110 113 110 104 102 111 115 114 111 108 103 98 95 92 87 81 76 71 73 72 71 70 66 64 62
103 115 122 114 111 106 101 104 103 105 110 115 116 121 124 124 123 119 117 114 113 111 106 103 108 107 112 110 107 103 101 95 92 87 82 79 71 72 68 66 64 65 64 65
114 123 119 113 108 100 100 100 96 89 88 95 98 100 106 115 113 113 114 110 107 105 103 103 107 106 109 110 104 102 101 99 92 88 84 79 72 70 66 63 62 64 63 63
121 124 119 109 100 94 89 90 84 80 70 77 76 79 83 89 95 95 100 102 101 97 97 97 101 104 104 108 107 101 98 96 91 86 83 79 78 72 64 59 62 63 63 65
121 124 119 110 99 84 79 77 74 71 61 65 64 65 66 72 79 84 88 81 87 90 94 92 93 98 100 104 104 101 95 93 89 86 85 82 78 72 64 63 62 62 65 65
118 117 107 103 94 84 75 67 65 64 54 56 57 57 61 63 66 74 74 68 71 77 86 89 88 92 96 98 100 98 94 89 88 88 84 79 78 71 66 66 65 63 63 62
120 108 102 90 81 76 71 64 60 53 50 49 51 50 53 57 58 59 67 60 61 67 75 82 84 88 92 94 95 96 92 89 87 86 81 78 76 70 67 65 65 64 63 62
115 106 95 81 77 68 64 55 53 52 47 44 41 46 46 49 51 54 57 49 50 58 63 73 79 86 90 90 90 94 91 89 86 81 76 75 73 70 67 66 66 64 62 62
112 105 90 77 76 67 62 53 47 46 44 40 41 43 44 44 47 48 48 43 42 50 57 67 73 84 87 89 88 90 90 88 83 80 77 76 71 68 66 67 64 65 63 62
108 101 84 76 68 59 60 52 42 43 44 41 40 41 41 41 45 45 45 40 39 45 55 64 72 80 84 87 85 84 85 83 80 78 76 74 69 67 66 65 66 66 66 64
105 95 83 72 64 53 51 54 48 40 41 41 39 37 35 37 41 42 42 39 39 45 53 61 71 77 82 84 81 80 78 73 72 70 73 72 70 66 65 65 66 68 67 63

GFSCGP_250_spd_015.txt.gz
Wind_Speed
46 53 56 58 58 58 58 58 58 63 65 57 55 47 47 56 53 55 59 60 61 61 67 69 68 67 65 64 63 62 61 65 64 63 65 67 68 69 71 69 67 67 67 70
45 52 56 60 60 62 64 65 66 66 70 66 64 56 58 59 61 60 62 64 66 67 70 72 71 71 69 68 67 67 67 67 67 67 71 70 71 72 72 70 69 67 68 69
50 54 56 58 62 67 69 70 73 74 75 74 72 61 62 63 64 69 70 71 73 76 77 78 78 77 76 74 75 75 75 75 77 77 78 75 74 75 73 73 69 68 69 70
52 56 58 61 66 67 68 75 75 76 78 77 79 70 65 68 70 73 76 78 79 81 82 85 86 86 85 84 82 81 83 82 81 81 80 78 79 78 77 75 71 71 71 73
55 56 59 63 66 70 71 74 76 79 81 81 80 85 64 72 76 78 81 82 84 88 89 91 92 91 90 89 87 86 85 84 85 84 82 81 79 81 79 75 74 72 72 72
54 57 60 63 67 70 73 76 79 82 84 83 86 90 65 75 77 80 86 90 92 98 99 98 96 95 94 94 92 89 86 85 85 85 82 82 83 82 78 76 76 76 74 66
54 57 60 63 66 70 76 79 81 81 83 82 85 86 70 74 79 83 86 89 94 98 98 100 101 99 98 96 96 94 92 91 91 87 85 85 84 81 79 79 77 73 67 65
58 62 67 71 75 79 84 90 94 95 93 92 92 88 80 83 90 88 89 90 91 93 96 100 100 101 101 98 95 91 88 88 85 82 80 78 77 76 76 76 74 70 67 64
55 57 65 71 75 80 85 91 97 105 103 108 99 99 94 95 97 98 98 98 98 97 97 97 99 102 101 96 93 89 88 84 82 81 79 79 80 76 75 74 72 70 68 65
62 60 67 74 78 83 89 94 100 107 112 114 107 104 100 98 100 99 99 98 98 101 102 103 106 106 106 104 98 95 94 90 89 86 84 81 80 74 71 70 70 68 66 64
67 68 69 77 83 90 93 98 106 112 118 128 126 111 109 113 110 109 109 108 102 102 105 105 108 108 111 108 104 101 99 97 93 94 93 91 86 80 73 70 70 68 65 62
68 74 76 81 90 95 106 110 117 124 126 130 138 133 113 115 115 114 110 113 110 113 116 115 112 112 113 115 109 103 104 102 97 98 95 92 85 78 75 74 73 69 67 63
74 82 84 91 99 102 107 112 120 124 130 133 135 124 114 110 118 120 115 118 119 119 119 121 120 120 115 119 117 111 106 106 100 98 96 94 88 83 80 78 77 75 65 64
86 90 94 89 89 84 92 103 110 117 122 126 123 125 114 106 104 110 111 112 112 120 128 130 128 125 122 123 121 118 114 112 108 104 103 95 91 87 83 80 79 76 71 68
98 94 92 92 95 99 102 106 113 118 120 121 116 121 116 104 99 97 104 104 106 106 112 114 120 124 128 129 126 124 120 120 112 110 107 100 95 88 83 83 79 78 74 68
99 96 95 96 104 102 102 107 116 118 117 115 108 105 106 101 100 92 94 99 103 105 103 106 110 115 115 116 118 110 114 121 118 112 109 101 93 89 87 84 80 80 76 70
100 103 102 100 107 103 104 112 113 111 106 105 98 91 91 92 89 86 88 93 97 99 104 108 106 108 110 108 108 107 105 109 110 108 106 99 92 87 83 79 80 79 77 71
109 112 109 107 106 105 108 115 110 101 98 95 85 80 77 74 77 79 83 80 85 89 94 99 102 106 110 109 110 102 103 104 103 101 97 92 87 82 76 76 80 79 77 71
117 119 119 112 108 108 109 107 99 95 82 86 76 70 66 60 56 73 77 70 75 78 80 85 90 97 100 107 109 105 104 102 102 98 94 89 83 77 73 75 79 79 75 71
120 124 113 113 112 110 109 99 95 84 71 71 69 66 61 59 50 63 69 67 62 65 70 72 75 80 87 98 104 101 102 101 100 98 95 88 79 75 70 73 76 75 72 67
128 126 115 109 109 108 102 98 87 76 67 64 65 59 56 55 52 54 58 64 54 54 58 62 67 71 77 88 94 93 101 102 101 96 89 85 77 71 69 71 72 70 67 66
134 120 110 107 108 102 98 90 82 69 66 60 56 61 51 51 49 48 52 57 54 46 47 57 62 64 71 77 82 88 96 96 91 87 82 79 74 68 66 69 69 67 64 63
131 121 106 105 105 98 97 86 78 69 59 57 51 54 48 48 48 47 49 52 49 44 40 51 58 61 66 71 75 83 89 85 83 79 74 71 67 66 66 67 66 65 59 58
125 115 108 103 101 96 89 82 72 69 61 55 50 47 46 43 43 43 44 48 46 41 39 48 57 59 61 65 73 80 81 80 77 71 67 66 63 63 65 65 63 60 57 57
123 112 105 100 97 94 87 77 69 68 61 55 43 43 42 39 40 38 39 36 36 35 39 46 54 56 57 61 71 76 77 78 73 64 61 61 64 60 63 63 59 58 56 56
119 112 105 97 95 90 80 73 65 62 56 55 43 40 42 33 35 35 33 30 28 31 40 47 49 52 55 59 68 74 72 71 66 62 60 59 59 62 64 61 58 56 55 54

GFSCGP_250_spd_021.txt.gz
Wind_Speed
45 48 50 51 53 54 55 54 55 61 65 62 63 61 64 67 70 69 69 70 71 72 72 73 74 75 74 77 75 75 74 72 74 73 70 70 69 66 65 63 61 60 62 62
38 40 43 46 49 51 52 54 58 58 64 64 64 63 67 68 71 76 74 76 77 79 81 82 83 84 83 84 84 82 80 79 76 78 77 76 73 70 69 67 66 64 65 65
38 41 43 46 48 49 54 55 58 59 63 66 64 64 69 73 74 75 79 80 80 82 84 85 88 88 89 88 88 87 86 84 83 81 82 79 77 74 73 74 72 69 68 67
39 42 45 49 51 53 57 59 62 64 64 67 70 66 72 76 79 77 79 83 87 89 89 91 91 92 93 92 93 92 91 89 88 86 84 82 83 79 79 79 76 72 70 69
36 40 41 45 48 51 54 57 59 62 62 62 70 70 76 80 82 80 82 85 89 91 93 95 97 99 100 100 100 99 99 97 96 93 88 86 86 83 82 82 78 76 73 69
40 41 45 48 52 56 58 61 63 66 69 71 76 76 80 91 88 84 83 87 88 92 97 99 101 102 104 105 106 105 106 105 103 100 96 92 90 91 87 86 83 79 74 70
40 43 46 49 53 56 60 62 64 67 71 71 77 75 81 93 87 89 90 93 97 100 103 103 105 109 111 111 112 111 110 108 108 105 100 96 93 93 90 87 84 82 78 76
44 42 48 49 55 56 59 63 67 71 74 73 80 77 83 96 96 94 96 100 102 104 108 111 111 115 119 119 119 119 118 116 115 113 111 105 97 96 95 92 86 83 78 73
45 48 51 52 59 63 66 67 70 74 75 75 75 81 84 97 100 106 110 113 117 119 116 118 119 120 124 124 125 126 127 124 121 117 114 109 104 100 94 90 83 78 76 71
52 52 57 61 64 66 68 69 73 80 81 85 83 89 95 102 106 112 118 124 127 128 126 130 130 129 129 130 130 130 128 127 127 123 117 114 106 104 101 97 89 83 79 74
65 62 60 60 63 66 65 74 81 84 87 95 96 87 95 106 115 118 124 128 134 135 134 133 135 135 132 133 133 134 134 130 128 122 119 117 117 112 106 101 99 92 88 83
71 69 69 71 70 69 78 82 85 89 90 94 103 94 100 105 114 123 128 133 134 133 132 128 126 124 120 113 113 120 133 136 135 129 120 115 115 115 114 110 106 100 95 90
78 77 77 79 78 79 85 88 93 94 96 94 105 102 102 106 108 112 114 121 117 112 111 109 105 104 103 103 99 101 107 118 125 132 132 123 117 115 112 109 104 98 93 89
84 83 86 84 88 94 94 99 101 102 102 99 103 108 105 107 110 105 104 104 102 100 99 98 95 97 95 97 96 96 99 108 113 116 123 120 123 118 114 108 106 101 96 91
91 90 90 93 98 100 100 103 105 107 105 104 102 108 104 105 107 105 103 97 94 92 95 96 93 94 94 96 97 99 102 105 106 109 115 117 112 118 120 111 107 103 99 96
96 96 94 98 105 106 104 107 109 107 106 107 107 100 108 102 97 97 99 96 93 91 90 89 88 86 87 88 88 90 96 104 106 105 108 113 111 106 111 115 114 115 113 107
102 103 101 103 109 111 110 110 110 106 110 111 106 101 101 96 92 94 94 91 91 85 79 77 77 74 74 76 74 76 84 94 101 105 105 107 108 105 103 101 100 99 105 107
106 109 109 110 113 113 108 113 111 108 108 110 101 100 97 93 85 92 92 84 78 76 71 70 68 66 64 65 65 67 70 81 93 97 102 105 105 105 100 96 93 90 94 99
111 113 116 118 117 113 115 113 110 110 103 105 103 97 95 91 86 85 87 79 71 67 62 57 59 56 55 57 56 59 63 72 78 89 95 102 102 103 99 95 96 88 89 89
115 117 119 123 121 113 114 110 108 106 102 102 97 95 92 89 82 76 73 74 71 64 56 48 45 48 46 50 47 53 56 63 70 76 86 93 94 96 97 95 94 89 85 82
119 124 126 126 120 116 115 111 109 105 98 97 96 93 90 87 82 72 66 64 67 62 53 45 37 39 42 45 42 47 50 55 62 69 77 84 87 86 86 90 90 86 82 79
124 124 127 122 119 116 118 112 113 106 100 100 92 90 89 80 74 70 66 62 57 52 46 39 32 34 39 42 39 43 46 49 57 65 72 77 81 79 78 81 83 78 73 72
126 126 123 118 119 115 113 111 108 106 102 96 90 89 84 76 69 66 64 61 54 46 38 32 31 33 35 39 39 40 42 45 52 60 68 72 74 72 74 73 71 73 69 68
127 128 121 117 115 111 112 110 109 104 101 93 90 85 78 71 67 63 57 54 46 42 35 30 32 34 35 36 36 37 41 41 49 53 62 66 66 66 68 64 69 66 64 60
126 123 119 114 113 106 110 106 106 101 98 91 87 81 74 69 62 55 50 49 39 35 35 31 32 30 30 34 35 34 38 37 42 46 53 57 63 65 65 67 64 63 66 59
122 120 117 113 108 106 103 103 102 98 92 87 81 73 70 68 59 51 47 44 33 32 29 29 27 24 26 27 27 30 34 32 35 38 47 51 58 64 66 66 62 66 57 58

GFSCGP_250_spd_024.txt.gz
Wind_Speed
42 44 49 51 53 55 56 58 59 63 64 62 63 60 65 69 72 72 72 73 76 78 79 78 79 81 82 80 79 82 83 82 78 75 79 77 71 71 70 68 66 67 68 66
32 34 38 43 46 48 53 55 56 58 61 61 62 62 66 69 71 74 75 77 80 81 83 83 85 88 89 90 89 89 91 90 90 86 83 87 82 77 76 74 72 73 72 70
28 32 36 39 43 45 51 51 55 56 60 64 63 67 72 72 71 73 77 81 84 85 86 86 87 89 90 92 93 94 96 97 96 96 91 87 92 86 80 79 80 78 73 71
30 33 36 40 43 45 49 51 54 58 59 61 71 68 77 77 76 75 79 82 86 88 90 92 93 95 97 98 99 98 98 99 101 101 100 95 91 93 88 85 84 81 78 76
22 28 34 37 41 44 48 50 52 56 58 59 68 68 76 75 73 74 78 80 82 85 89 91 95 97 102 103 103 105 105 106 106 106 106 103 96 94 96 91 89 87 85 82
28 31 35 40 45 49 51 53 55 57 58 60 65 66 75 79 77 77 80 85 87 89 91 95 99 103 105 108 109 110 111 110 110 109 110 109 106 101 98 99 93 91 89 87
22 27 32 41 47 46 49 53 57 62 64 67 71 75 80 81 83 83 83 85 87 92 95 96 99 106 109 112 114 116 118 118 119 118 117 115 112 108 101 101 99 94 92 90
34 34 41 43 54 54 52 54 59 61 65 67 70 73 86 84 88 91 95 98 101 104 105 104 105 108 112 117 120 125 126 126 127 127 126 125 122 118 113 109 105 94 91 91
37 43 48 49 56 61 59 63 65 62 64 66 69 77 85 84 89 93 98 105 110 114 117 116 118 121 122 124 126 129 133 132 133 135 133 131 130 127 124 117 113 108 98 88
42 48 56 58 62 67 71 76 73 73 76 79 75 78 87 94 98 102 106 112 115 120 122 122 126 128 130 131 133 136 139 141 142 137 135 132 132 129 128 122 114 112 108 100
53 56 63 65 69 72 78 83 81 83 87 92 90 81 87 95 99 101 104 110 115 119 120 122 124 129 135 137 135 130 126 128 134 142 143 135 135 130 125 123 115 107 106 102
61 64 69 73 79 81 86 90 90 93 95 96 102 83 92 95 98 101 103 105 106 110 111 118 121 120 123 125 125 124 121 114 114 116 114 125 127 129 127 119 118 109 104 101
68 72 75 81 85 87 91 96 97 101 101 99 103 99 98 99 100 98 101 106 106 105 105 105 108 109 113 108 105 104 106 103 107 107 105 109 110 109 112 112 110 112 113 107
73 78 80 87 92 95 97 103 106 110 108 104 102 103 103 104 102 100 102 105 104 102 104 102 102 99 99 100 98 94 94 96 95 97 100 102 103 104 99 102 102 103 105 107
79 83 85 91 96 99 103 106 110 112 109 107 102 109 108 104 103 102 104 105 102 98 92 93 94 92 94 92 90 90 89 92 91 93 94 96 100 100 97 93 94 92 95 100
85 88 91 95 100 104 108 110 112 112 111 112 112 108 111 107 104 102 104 107 102 95 91 90 88 85 88 87 81 77 77 77 79 81 90 90 92 92 91 90 85 87 86 88
92 94 97 100 105 108 113 115 115 113 117 120 116 112 107 106 101 99 102 100 94 92 87 88 84 78 78 77 74 69 69 68 67 68 75 82 85 87 83 83 82 82 81 84
99 101 104 106 110 113 119 121 121 116 120 121 117 114 109 105 99 96 102 96 91 89 84 82 77 71 69 68 67 65 64 61 61 61 65 70 72 76 80 81 81 76 78 79
102 106 109 114 115 118 122 124 125 121 118 118 118 111 106 101 95 94 95 92 90 85 78 71 69 67 61 60 61 58 57 54 55 56 59 63 63 65 72 76 76 72 75 76
108 109 115 119 122 124 128 129 127 124 118 117 117 111 106 100 94 87 88 88 84 80 76 67 62 61 55 53 53 53 53 50 51 52 54 56 57 56 60 67 70 69 71 72
113 114 119 123 128 130 132 133 128 125 123 118 113 107 102 97 95 88 87 83 79 72 68 65 60 54 49 47 49 50 49 46 46 46 49 50 49 48 51 59 63 63 65 67
117 119 123 126 130 135 137 131 135 129 123 121 113 107 102 97 92 89 85 80 76 66 61 60 55 50 49 44 45 47 46 41 42 41 43 44 44 44 48 58 61 60 62 62
121 123 125 128 134 135 133 133 129 128 123 116 108 103 99 93 89 86 80 75 72 66 57 54 51 47 50 43 42 44 42 36 36 36 39 41 40 42 48 55 59 59 59 59
124 127 129 131 134 135 134 130 125 123 119 114 106 103 98 87 88 83 79 73 66 62 56 51 47 45 43 42 38 36 40 31 33 31 36 38 38 39 44 51 56 59 58 58
128 130 130 133 134 131 131 126 121 114 111 105 101 100 94 90 89 80 75 71 64 56 52 48 45 43 40 31 30 30 33 26 29 29 33 39 38 39 45 52 57 59 58 57
127 131 134 133 133 131 125 120 116 113 107 103 99 95 95 90 84 75 72 68 60 49 48 45 42 35 31 27 26 25 27 25 26 27 33 38 38 38 46 56 61 58 57 54

GFSCGP_250_spd_027.txt.gz
Wind_Speed
40 45 49 50 53 56 58 58 58 63 63 64 67 68 69 73 73 72 74 76 77 76 77 79 80 83 84 85 86 89 88 88 87 85 83 84 84 80 77 79 78 75 75 74
30 33 36 40 43 45 48 49 52 56 60 61 63 66 64 68 71 73 74 76 76 78 79 81 83 85 88 90 91 92 93 93 93 93 90 86 87 88 84 83 84 84 82 81
25 28 30 30 33 35 38 39 45 49 54 60 60 64 64 64 68 71 72 75 78 80 82 85 87 90 92 95 96 97 97 99 99 98 98 95 91 90 92 89 87 88 87 83
18 20 23 24 24 25 28 31 37 43 46 53 59 59 63 63 65 67 68 70 72 74 79 83 87 92 95 96 97 99 100 100 102 102 102 101 100 95 94 96 93 92 91 88
10 12 12 11 13 20 26 31 34 37 40 46 54 58 59 61 65 69 72 74 76 79 81 83 86 90 93 95 98 101 104 106 108 110 109 107 106 104 100 96 98 98 97 94
8 13 17 21 23 25 31 37 41 43 46 53 60 60 59 61 63 66 69 72 78 82 85 87 91 94 96 98 102 104 106 109 111 112 114 116 116 113 110 106 102 101 99 97
12 15 19 27 31 32 37 42 46 49 55 62 66 70 69 71 73 73 75 77 81 86 90 92 95 100 105 107 110 113 115 116 117 119 120 123 122 121 119 116 111 108 107 102
19 22 25 32 36 42 46 51 55 58 61 67 74 80 81 83 87 86 85 85 86 88 92 95 99 104 110 114 118 120 124 123 126 130 130 129 127 127 129 126 122 116 112 110
24 30 32 38 43 50 54 58 62 67 69 72 74 81 86 90 93 93 92 93 92 92 91 92 96 103 110 113 118 122 125 127 130 136 136 136 135 135 135 136 130 124 119 114
32 38 42 46 52 57 64 69 73 77 79 80 82 88 93 96 98 99 97 97 99 100 99 101 103 109 110 112 112 116 119 122 125 130 135 137 139 137 138 138 138 133 125 118
38 45 49 55 58 64 71 76 80 83 87 90 91 91 96 102 106 104 99 101 101 101 101 103 104 107 110 111 112 115 117 118 118 120 125 130 131 132 136 133 132 131 124 120
49 52 58 64 68 70 77 82 86 89 92 97 100 93 103 109 111 106 103 101 101 100 101 99 99 103 105 108 109 112 110 107 108 110 111 113 116 119 114 117 120 118 117 108
57 59 64 69 72 75 80 86 90 95 97 101 108 109 112 117 112 107 106 105 106 103 99 99 99 100 102 103 102 103 101 100 99 98 98 99 102 102 101 100 100 102 99 98
63 67 70 76 79 82 86 92 97 102 105 106 113 116 120 122 115 109 105 106 103 98 95 94 95 96 97 97 96 93 91 93 92 91 91 91 92 92 90 91 90 91 88 85
70 73 75 83 84 89 93 95 101 107 112 117 114 121 129 121 116 112 109 109 103 96 94 93 94 95 94 91 92 89 86 85 84 82 83 85 87 87 85 85 83 81 78 79
74 79 81 89 93 96 98 101 105 110 115 120 124 126 127 121 118 114 113 110 101 97 95 94 94 92 89 88 87 83 78 77 74 71 74 75 75 76 77 80 79 79 76 75
82 85 87 91 95 98 104 105 109 114 120 127 128 130 124 118 118 117 114 107 101 99 98 94 88 86 85 81 78 73 70 70 66 67 65 64 66 62 64 65 68 73 73 73
89 91 94 97 98 102 111 112 116 118 125 130 132 130 127 119 116 116 113 105 101 99 97 92 85 79 76 74 68 65 65 64 61 64 59 57 56 52 52 54 59 61 65 68
96 99 101 103 101 106 113 117 121 124 126 131 130 127 123 119 114 112 111 107 103 103 96 90 82 73 69 67 60 58 60 57 57 55 49 48 46 43 43 46 50 53 58 61
100 102 103 108 109 113 118 123 126 130 129 129 126 126 123 120 117 110 106 104 102 100 94 86 77 70 67 60 54 52 55 52 50 44 40 38 37 37 36 40 44 49 52 55
103 103 106 112 115 118 122 127 132 132 132 127 127 125 123 122 118 110 106 102 100 94 89 82 71 64 63 56 51 50 47 45 41 35 35 33 33 32 33 38 41 44 45 51
108 108 110 116 121 125 128 134 137 135 130 132 130 128 125 121 112 106 104 100 92 88 83 80 68 59 61 55 43 43 40 35 33 29 30 26 28 27 31 36 38 41 46 55
115 113 115 120 125 129 134 136 137 135 135 132 130 126 125 117 108 104 100 94 91 85 77 71 65 59 57 50 41 34 33 28 27 23 27 22 24 25 29 34 38 40 48 57
117 116 119 122 126 130 134 137 135 135 134 130 129 125 122 112 107 103 101 94 88 82 73 66 61 56 49 44 37 30 30 27 23 22 22 17 22 24 27 33 39 46 52 58
123 120 123 127 131 131 136 133 133 132 131 126 124 121 118 108 104 102 96 89 81 75 67 62 55 50 44 39 34 29 27 26 18 23 17 16 21 24 28 36 43 49 54 60
123 125 127 130 132 132 130 130 132 130 126 123 119 112 109 105 99 96 93 84 75 66 62 56 51 44 39 35 32 28 24 22 18 20 15 16 23 26 31 42 50 57 60 56

GFSCGP_250_spd_030.txt.gz
Wind_Speed
47 50 50 51 52 54 56 59 61 62 60 59 60 56 61 65 66 64 63 66 69 72 75 77 80 82 84 85 86 87 87 87 87 86 85 85 85 84 84 85 85 85 85 84
42 42 44 46 48 50 50 49 49 46 45 45 49 47 49 51 52 54 57 60 63 67 71 75 78 82 84 86 88 89 90 90 91 92 92 91 90 91 90 89 89 90 89 90
34 36 35 35 34 32 28 29 27 26 29 30 33 31 31 34 41 46 50 55 59 63 69 74 79 84 87 90 93 94 94 94 94 94 95 95 94 93 95 96 95 94 94 94
26 24 22 19 17 17 14 17 17 20 26 33 33 34 39 42 46 52 54 56 58 61 66 72 78 82 84 87 90 94 97 101 102 103 102 102 101 100 98 97 97 97 97 97
15 15 12 9 10 15 21 22 22 28 32 35 37 40 44 50 53 57 61 62 64 64 65 67 72 77 85 93 96 98 100 104 107 108 108 109 109 108 107 105 102 102 102 103
11 12 14 14 13 17 23 28 30 35 40 45 50 50 53 58 62 66 67 70 73 76 77 78 79 80 81 86 94 101 106 110 112 115 117 119 117 115 113 110 110 109 107 106
14 15 18 19 22 26 29 33 38 42 46 52 57 58 63 68 71 74 77 79 82 85 87 88 89 87 89 91 93 97 100 105 113 117 121 125 128 128 124 122 119 117 116 113
18 22 24 26 30 34 37 43 47 48 53 56 63 66 69 78 81 85 88 90 94 96 97 97 95 93 93 94 97 98 101 104 108 112 116 123 129 131 132 132 130 128 126 123
23 27 29 31 36 41 46 50 53 55 58 59 65 73 78 83 87 92 96 100 105 107 107 104 100 97 94 93 95 97 99 103 108 110 115 121 125 127 128 130 133 133 132 129
30 34 36 40 45 49 53 56 58 62 66 67 73 77 84 86 92 97 103 109 114 113 110 107 104 101 100 99 99 100 101 101 105 109 111 116 121 126 127 128 130 131 132 130
36 41 43 45 50 55 58 62 66 71 76 80 80 82 89 96 99 105 109 116 121 119 112 109 105 102 102 101 100 100 102 103 104 104 101 105 108 114 119 123 125 127 128 128
42 45 50 53 55 60 66 70 74 77 80 86 88 85 94 99 103 110 117 121 120 116 111 107 103 102 101 99 96 94 95 97 98 98 99 101 101 101 101 104 106 111 112 119
49 53 56 58 61 64 71 75 79 82 87 92 96 96 104 105 110 115 122 126 121 117 111 105 102 100 99 97 94 92 91 92 93 93 94 95 96 94 94 95 94 98 99 101
55 59 62 66 68 71 77 81 85 89 93 94 103 100 108 112 116 120 127 125 121 114 109 105 101 97 95 94 93 91 92 89 88 85 85 86 87 86 85 87 86 89 90 90
62 64 67 73 74 77 80 85 89 95 100 102 102 110 114 117 122 127 130 124 117 112 108 104 99 95 94 96 96 93 90 85 86 84 83 81 79 78 79 80 82 84 83 84
68 69 71 76 80 82 85 92 94 100 104 108 109 111 119 123 129 133 129 125 117 113 110 104 99 95 96 99 92 86 88 85 85 80 76 76 72 69 69 68 70 72 71 74
73 75 76 78 81 85 92 95 98 102 107 112 115 119 122 126 133 133 130 123 118 113 109 101 97 96 96 92 88 84 78 77 75 72 70 68 65 62 62 58 58 59 61 64
79 81 82 82 85 88 99 98 100 105 110 118 121 125 131 133 133 131 132 125 117 115 111 104 100 100 99 90 85 78 70 68 66 64 61 59 57 54 52 48 50 53 55 55
85 86 87 88 88 93 106 106 109 110 112 121 124 128 134 137 128 132 129 125 123 118 111 103 102 101 96 88 77 68 63 63 61 57 55 53 49 43 39 40 43 45 46 47
92 92 94 96 97 101 110 109 113 115 118 122 127 133 139 136 130 124 121 125 118 115 107 102 101 96 91 82 72 65 59 56 55 48 50 45 36 33 31 34 37 38 39 40
98 100 100 103 105 107 113 115 120 121 125 129 134 139 139 132 133 123 124 121 114 107 100 98 93 89 82 71 65 60 53 52 48 43 43 36 27 27 26 28 29 30 33 35
106 109 106 107 109 117 114 119 122 125 130 134 138 140 133 132 128 125 123 115 110 104 101 98 91 84 79 68 58 51 50 46 42 40 37 30 24 23 22 23 25 28 28 31
113 117 114 112 113 122 121 126 128 131 134 137 139 135 133 128 125 122 116 109 104 101 99 92 84 73 70 61 52 44 43 38 36 34 29 24 21 20 19 21 24 27 30 34
116 120 117 113 118 122 126 129 133 136 137 138 135 133 127 124 123 117 109 105 100 98 91 84 74 66 59 53 47 41 36 32 27 25 21 18 20 17 16 20 25 28 34 46
116 117 119 115 122 123 127 131 134 136 134 131 129 127 124 120 117 110 105 100 95 92 83 77 67 60 54 46 41 36 31 26 19 17 14 13 20 15 17 23 29 34 46 53
120 123 120 122 125 127 129 130 131 127 124 123 120 117 117 113 108 102 99 95 91 83 78 69 61 51 45 41 35 30 25 20 14 11 8 12 17 17 21 28 32 44 52 57

GFSCGP_250_spd_033.txt.gz
Wind_Speed
48 50 53 54 54 56 56 57 58 57 57 59 59 58 54 49 45 45 47 47 47 50 53 57 58 59 62 64 68 72 75 78 80 81 82 83 84 85 88 91 93 94 94 93
47 48 50 52 54 54 53 55 55 55 54 53 46 36 32 34 35 37 42 47 51 53 56 58 61 65 67 69 71 74 77 80 84 88 92 91 90 90 91 91 94 96 97 98
44 45 47 46 46 46 45 46 44 42 38 27 22 22 29 35 39 42 45 49 52 56 60 64 66 69 73 75 80 82 84 87 89 90 92 95 97 98 98 98 99 99 98 98
38 37 37 37 38 38 37 35 32 26 26 29 28 24 35 42 45 48 52 55 57 60 63 67 71 76 80 84 89 91 93 93 93 93 93 95 97 101 104 105 105 104 104 104
33 34 34 33 32 33 32 27 25 27 28 31 35 35 41 48 52 55 57 59 61 65 68 74 79 83 87 93 97 98 98 98 97 98 97 97 98 101 103 107 110 110 111 110
32 31 29 29 29 29 29 28 28 30 33 37 42 44 49 54 56 59 62 64 67 72 75 80 85 90 94 99 102 101 100 101 102 102 103 104 105 104 106 109 109 110 114 117
29 29 27 28 29 29 30 32 34 37 41 46 51 50 55 58 61 65 67 70 74 78 82 86 91 95 100 105 107 103 104 105 104 104 104 105 107 108 110 111 114 115 115 114
27 26 26 28 30 33 36 39 42 43 47 50 56 57 61 68 69 72 74 77 80 84 89 94 98 102 105 110 107 107 106 105 103 101 102 105 108 111 112 114 116 117 118 119
28 28 29 32 35 36 39 44 48 52 54 55 58 64 68 74 74 78 81 85 88 92 97 101 104 107 113 113 110 109 106 103 101 100 102 105 109 112 112 114 116 118 120 120
32 34 36 38 41 44 47 49 53 58 60 59 62 69 78 76 79 82 87 90 94 99 104 108 111 115 122 118 116 114 109 105 104 102 100 95 98 104 105 108 112 117 119 120
35 39 40 43 45 49 53 57 61 64 66 68 69 73 80 82 84 89 92 96 101 107 111 114 118 124 127 123 121 115 112 107 104 101 95 93 92 95 97 99 102 105 108 112
38 41 43 46 51 55 60 63 66 69 72 76 79 78 85 89 92 96 101 105 111 115 117 122 127 134 129 125 118 114 110 105 101 94 90 88 93 96 98 99 99 100 99 101
45 48 51 52 57 61 66 70 73 75 77 81 85 88 93 94 98 104 108 113 117 120 123 129 134 134 129 124 119 116 108 101 95 91 90 89 91 90 91 91 92 93 92 93
52 55 58 61 64 67 73 76 79 80 83 85 90 89 100 103 106 109 114 119 121 125 130 135 137 131 125 123 121 110 102 94 91 91 89 86 86 85 84 83 85 84 86 87
59 61 66 69 72 74 78 83 86 87 90 91 93 96 103 106 109 114 120 123 124 129 136 142 135 128 123 120 112 103 95 89 91 91 89 87 87 83 80 76 75 72 73 76
66 68 70 76 78 79 82 89 88 90 95 99 100 101 110 112 117 121 126 128 130 137 142 136 129 124 120 113 103 94 92 90 88 89 86 86 83 79 76 70 66 64 64 64
75 77 78 79 82 84 85 89 93 94 98 104 105 111 113 117 121 127 130 133 138 144 137 130 123 118 112 104 97 92 90 89 87 84 82 80 74 68 64 63 59 56 54 57
82 84 85 84 87 87 90 95 97 97 102 109 110 115 118 121 123 131 137 140 144 139 131 126 119 111 104 97 92 90 89 86 83 79 73 70 65 61 58 57 53 50 50 51
86 88 90 91 91 91 96 101 103 102 102 112 116 120 123 126 126 133 140 144 138 129 128 120 113 106 96 93 91 87 83 76 71 70 69 63 56 52 50 48 46 47 47 47
91 94 94 94 97 97 104 105 106 108 109 115 119 122 125 128 131 133 140 136 128 126 120 112 106 100 95 93 90 85 77 71 64 61 59 55 48 43 43 41 41 43 40 39
95 98 96 99 104 103 109 111 111 115 118 118 122 124 127 131 137 138 133 128 125 121 113 106 101 97 94 91 84 77 72 66 59 54 47 44 41 36 34 36 36 33 33 32
99 102 101 104 109 110 109 112 117 118 120 123 125 129 131 135 136 131 129 125 121 113 109 101 99 98 93 84 76 68 60 57 52 47 41 35 32 28 28 29 25 28 29 28
101 106 105 107 108 115 112 115 119 120 123 125 129 133 134 133 129 125 121 118 111 109 101 99 97 92 87 76 68 60 53 47 43 39 36 32 27 23 21 19 22 26 24 25
102 109 107 112 106 112 117 119 121 124 126 129 131 132 131 126 124 121 117 110 104 99 96 95 92 87 78 69 61 52 45 40 37 34 29 26 21 16 14 17 20 23 26 29
106 109 112 109 109 115 118 121 124 128 129 129 128 127 125 122 120 113 109 102 97 93 94 90 86 80 70 61 53 46 41 37 33 29 23 17 13 11 14 14 21 27 30 32
114 112 115 112 117 118 121 122 122 122 123 124 122 119 118 114 107 106 100 95 89 89 89 86 81 72 64 56 46 41 37 34 27 21 16 12 9 8 10 18 28 30 32 35

GFSCGP_250_spd_036.txt.gz
Wind_Speed
62 60 57 58 58 58 58 58 56 58 58 58 59 61 62 60 57 58 57 46 41 40 44 46 50 54 56 59 61 62 63 67 70 71 74 77 80 82 84 87 90 92 93 91
57 58 55 56 56 56 57 58 58 58 58 58 58 58 53 49 45 40 37 39 42 46 50 54 57 60 62 65 67 69 72 74 78 80 85 86 89 90 88 87 89 94 95 93
47 48 48 48 50 52 54 55 55 55 55 57 53 44 41 40 38 39 42 44 49 52 57 61 63 67 68 70 72 74 78 82 86 88 92 93 96 96 95 96 94 93 96 98
45 45 45 48 50 50 50 49 51 53 51 47 41 32 40 40 43 45 48 52 56 60 62 65 69 72 73 75 78 80 83 87 92 94 98 100 104 101 100 99 100 99 97 98
42 44 43 43 43 45 46 45 47 46 43 40 36 33 41 44 48 51 54 59 64 67 69 73 75 77 79 81 84 87 91 96 100 102 104 107 107 106 105 104 104 103 102 101
36 35 36 39 41 43 44 45 41 40 41 38 40 40 46 50 55 58 62 66 68 72 76 79 80 82 84 86 89 93 98 103 105 108 111 114 112 109 108 108 107 105 104 103
33 35 37 39 42 43 41 41 39 37 39 42 45 47 54 60 63 64 66 70 74 77 82 84 86 87 89 91 95 100 105 108 109 111 116 116 114 114 115 112 109 107 106 106
36 38 39 38 37 37 37 38 39 39 41 44 50 54 59 65 65 67 71 75 80 84 87 89 91 93 95 99 103 107 110 111 113 116 116 116 114 114 114 111 110 108 107 107
36 37 35 34 34 36 38 40 42 44 47 49 52 59 63 70 71 74 78 82 86 89 92 94 97 101 105 108 112 115 116 117 119 118 117 117 115 114 111 111 109 106 106 107
35 35 34 36 39 41 43 46 47 49 52 54 57 62 70 74 76 79 82 86 91 94 99 102 105 110 112 116 117 119 122 123 121 121 119 118 117 117 115 110 105 103 103 101
37 38 39 42 45 46 47 48 51 53 58 60 60 66 76 78 81 83 88 92 96 101 104 107 112 115 117 120 123 125 126 125 123 121 120 117 115 113 111 107 102 101 97 97
40 44 46 47 49 49 52 55 58 61 66 71 74 75 83 85 86 89 94 99 104 106 109 113 117 119 123 125 129 134 133 129 127 125 121 115 111 110 105 101 97 96 94 93
45 47 49 52 54 57 60 64 68 71 75 78 82 87 91 91 90 94 100 106 110 112 116 121 123 125 127 131 136 135 129 129 126 123 120 114 108 103 99 97 94 94 95 94
50 54 57 59 62 65 69 72 75 78 82 84 90 88 99 98 99 102 109 114 116 119 124 126 127 129 132 137 137 131 126 124 120 116 113 108 102 97 94 94 93 89 88 87
57 61 64 64 65 67 72 78 80 85 90 91 92 93 99 101 103 110 115 117 119 123 126 128 129 134 139 139 133 129 127 122 117 113 109 104 99 94 89 87 85 80 76 75
66 67 69 71 74 75 77 87 89 91 95 95 97 98 103 104 109 115 119 121 124 127 128 130 135 141 140 135 130 125 122 115 111 106 104 98 92 87 83 80 75 70 67 65
75 78 79 78 82 82 83 90 94 95 96 102 103 106 106 109 115 119 123 126 128 129 131 135 140 138 134 129 124 118 113 107 102 96 96 89 81 78 72 69 66 60 59 58
82 84 85 85 87 85 89 95 97 97 100 106 104 109 111 114 116 123 126 127 129 133 137 140 138 132 127 121 114 109 106 101 96 91 88 84 76 68 63 59 56 54 50 48
86 88 90 90 90 88 93 100 100 99 95 106 107 111 114 116 119 124 127 131 134 137 139 135 130 126 118 113 106 102 101 96 91 87 82 75 69 62 56 52 51 48 41 41
92 94 94 93 92 88 93 100 98 98 98 104 109 112 116 118 119 123 128 132 136 137 134 129 125 118 112 105 101 98 95 91 85 81 75 70 66 58 51 46 43 40 39 38
91 91 92 94 93 90 99 101 100 102 105 108 110 113 116 119 123 125 130 134 132 131 127 123 116 111 105 100 97 94 91 85 79 74 70 64 58 49 43 39 35 35 32 28
88 90 92 94 96 96 101 103 105 108 110 110 112 116 119 122 127 130 132 128 125 123 120 113 106 103 101 98 93 90 85 79 72 68 63 54 48 41 35 31 27 26 25 20
91 96 99 99 95 104 104 104 109 109 111 114 118 121 124 127 129 126 125 123 121 118 112 104 100 97 95 94 89 85 79 70 66 61 53 46 38 33 29 25 23 21 18 15
94 99 101 100 96 101 103 110 112 113 115 118 121 124 126 124 123 123 121 117 114 110 102 98 95 93 90 89 86 79 71 64 60 54 45 39 33 28 26 23 20 17 13 10
103 102 107 100 98 100 109 112 115 118 121 123 124 123 122 122 120 116 115 112 108 101 95 93 90 85 84 83 79 71 63 58 52 45 38 33 28 24 22 18 14 12 6 3
110 112 111 102 105 107 111 115 116 119 120 120 119 120 118 115 113 112 110 105 98 92 89 86 83 80 79 78 72 61 56 49 41 37 31 26 21 18 14 12 9 6 1 6

GFSCGP_250_spd_039.txt.gz
Wind_Speed
60 60 61 59 58 56 54 54 53 55 58 60 62 63 64 64 63 62 62 63 58 51 44 46 46 48 51 54 58 61 65 67 69 71 71 73 75 77 80 84 86 89 90 91
61 62 59 59 59 60 61 61 60 58 59 61 61 62 63 63 62 62 60 55 52 48 49 50 52 56 58 62 66 69 72 74 77 79 80 81 82 84 85 87 91 94 96 97
56 58 58 59 60 59 60 60 59 57 55 56 58 60 60 60 60 55 50 47 46 49 51 54 58 62 66 70 73 75 78 81 83 85 86 88 90 93 95 98 100 101 100 101
49 50 51 53 56 56 55 54 54 54 55 55 56 53 57 55 53 50 47 47 51 52 56 61 65 70 73 75 77 80 83 86 88 89 91 94 97 101 103 106 108 110 110 110
42 43 45 48 49 51 51 51 53 54 52 53 52 50 53 53 51 50 50 53 57 60 65 69 73 76 78 80 83 87 89 91 94 96 99 102 106 108 109 112 113 115 118 122
41 43 45 47 48 49 48 49 48 49 50 50 51 49 50 50 51 51 54 58 63 68 71 75 77 80 83 86 89 92 94 98 101 103 106 110 113 116 117 118 120 123 123 123
38 39 41 41 41 43 44 45 47 48 49 47 47 43 48 49 52 55 59 63 67 71 74 77 80 83 86 88 91 96 100 102 106 110 113 117 118 117 118 122 124 124 123 121
35 35 37 39 41 43 45 47 47 44 44 43 45 46 50 54 56 58 62 66 70 73 77 81 85 89 91 94 98 103 107 108 112 117 120 120 120 122 125 124 123 119 117 115
38 39 40 41 42 43 45 45 44 42 42 44 47 52 55 59 60 63 65 71 77 80 84 89 92 95 99 102 106 110 112 115 120 122 122 123 127 126 121 118 117 116 116 115
39 40 41 41 43 44 44 44 44 47 47 49 51 54 61 63 67 70 74 80 84 88 93 97 99 102 106 109 113 117 121 123 124 125 129 130 126 122 117 115 115 115 113 110
41 42 43 43 44 45 46 48 50 53 56 54 53 57 69 73 77 79 83 87 91 96 99 101 104 108 111 115 120 123 125 127 129 134 133 129 123 121 119 116 114 111 109 106
43 43 44 45 47 49 52 55 57 59 59 62 64 67 76 81 82 86 90 94 98 100 102 106 109 112 116 121 124 126 129 132 136 133 128 124 125 123 119 116 111 108 104 100
44 45 46 48 50 53 57 60 62 64 67 71 72 76 81 84 88 93 97 101 103 105 108 111 114 118 121 126 128 131 134 138 135 131 128 126 123 119 116 113 108 100 98 95
47 49 51 53 55 58 62 64 67 71 74 73 79 80 94 93 95 100 102 105 107 109 112 115 119 123 127 129 132 136 138 136 132 130 128 123 119 115 112 108 102 94 88 84
52 54 57 60 61 61 65 71 75 78 83 83 86 90 98 99 101 105 108 110 110 113 116 120 124 127 128 131 134 138 135 134 132 128 122 116 114 109 108 103 94 85 76 72
60 61 63 64 67 68 71 82 83 87 91 92 95 96 101 102 105 109 109 109 112 115 119 123 126 128 131 134 136 135 135 133 129 122 113 110 105 103 102 95 83 72 65 62
67 69 71 72 78 78 78 89 92 94 96 97 99 101 102 104 105 108 109 112 115 119 123 124 127 130 134 135 134 134 131 127 119 113 110 104 99 96 92 82 71 64 58 54
76 79 81 80 84 82 87 93 97 97 98 101 101 103 104 103 105 110 113 116 119 121 123 126 128 132 132 133 130 128 124 117 110 106 101 98 95 89 80 72 67 60 55 51
82 84 85 85 86 84 88 95 95 93 91 99 98 101 103 105 107 114 118 120 121 124 125 128 132 129 130 125 123 120 114 108 102 98 95 92 87 78 70 66 62 56 50 45
82 84 84 85 84 79 84 89 88 87 87 94 100 102 105 109 111 113 117 120 122 124 128 128 126 127 122 120 117 110 105 99 96 93 90 85 77 70 66 62 56 50 45 41
82 82 84 86 85 82 90 89 89 91 94 99 102 104 107 110 113 114 116 119 123 126 124 123 122 120 118 115 109 103 98 93 91 88 84 76 70 65 59 53 46 42 38 33
86 88 89 90 93 92 93 94 95 98 100 103 103 106 108 110 113 116 120 122 122 120 120 118 117 116 113 107 101 95 92 89 86 82 75 68 64 57 50 40 36 32 27 21
89 93 92 95 94 101 97 95 99 102 105 105 104 106 109 112 116 120 121 120 118 116 115 115 113 109 104 99 93 89 87 84 80 75 68 62 55 47 38 32 28 23 19 15
91 97 97 93 96 101 98 98 96 101 105 106 107 111 114 116 118 119 118 115 114 113 112 110 105 99 95 91 88 86 81 76 72 65 60 53 46 36 31 27 22 18 14 7
91 100 102 88 93 101 97 99 98 106 111 111 112 114 115 116 118 115 112 112 110 108 106 101 94 91 87 84 83 78 73 69 63 58 50 42 34 29 25 20 17 11 7 8
97 110 110 92 100 101 100 102 104 109 113 113 114 116 115 115 112 110 110 108 105 101 97 91 87 83 81 80 76 70 66 60 55 48 39 33 29 24 19 15 13 12 16 16

GFSCGP_250_spd_042.txt.gz
Wind_Speed
58 58 59 59 57 55 54 54 53 54 55 55 56 58 61 64 66 65 65 66 65 65 63 62 59 56 53 52 53 55 58 61 65 69 73 76 76 78 81 84 86 88 89 89
60 62 62 60 60 60 62 61 62 62 62 63 64 66 66 68 67 65 65 65 65 64 63 60 58 55 53 54 57 60 65 69 74 77 80 82 84 85 86 86 87 89 92 94
57 59 60 60 61 63 62 61 60 61 63 64 65 66 67 67 67 65 64 63 63 62 61 60 58 57 58 61 64 68 72 77 79 81 83 87 89 90 91 92 95 98 99 100
57 58 58 59 61 62 61 61 61 64 65 64 64 62 66 66 64 62 62 62 61 60 59 61 61 60 62 66 71 75 77 80 81 84 88 90 92 95 98 101 103 107 109 111
52 52 52 54 55 56 58 59 61 61 59 59 60 59 62 63 61 60 59 58 56 57 59 59 61 65 69 72 75 78 80 84 88 93 95 97 99 102 104 107 111 114 117 118
46 46 49 50 51 53 54 55 56 57 57 57 57 57 59 60 59 57 56 54 56 57 59 63 66 70 74 76 79 83 88 93 97 100 103 105 106 108 111 114 117 119 121 122
41 42 45 48 49 51 52 54 54 54 55 54 55 55 58 57 57 54 54 55 59 63 65 67 71 74 78 83 89 93 97 100 104 107 110 112 114 116 117 120 120 122 124 127
42 42 43 45 46 47 47 47 49 50 52 53 54 55 55 57 55 54 57 59 63 67 69 72 76 81 87 92 97 101 104 107 110 112 114 116 119 122 124 124 125 128 127 122
40 41 43 44 45 46 47 50 51 52 52 52 53 55 57 56 56 59 61 65 69 71 74 80 85 89 93 98 103 106 109 112 114 116 118 121 125 126 127 129 131 126 121 118
42 43 45 46 47 47 49 50 51 52 53 53 52 54 62 61 63 66 69 72 74 78 83 86 90 95 100 104 108 111 113 115 117 120 123 126 128 131 132 132 128 125 122 118
43 45 46 46 47 49 50 51 52 53 55 55 55 55 65 66 69 72 74 78 81 85 86 91 98 103 106 109 111 113 115 119 122 125 127 129 131 134 132 130 128 125 121 114
43 45 47 48 49 51 52 54 55 55 56 59 59 56 71 72 75 75 81 85 86 90 95 101 105 108 110 111 112 115 119 124 127 128 130 131 135 131 130 127 126 123 115 110
44 46 49 51 53 54 54 57 58 59 60 62 63 69 73 78 79 83 88 91 94 98 103 107 109 111 112 113 116 119 125 128 129 130 132 134 132 131 128 127 122 115 110 105
49 50 52 53 53 55 57 60 62 63 66 67 69 74 82 85 84 92 95 99 102 105 108 110 113 112 114 117 120 125 129 130 131 134 133 132 131 128 124 120 115 109 104 101
50 52 54 56 56 57 60 64 67 71 74 74 77 80 88 93 96 101 103 106 107 109 111 111 111 114 117 121 125 128 130 131 134 133 131 129 126 123 117 112 108 103 100 95
55 55 57 58 61 62 64 71 75 77 81 81 83 88 96 97 102 105 106 106 106 106 107 110 114 119 123 126 127 128 131 133 131 130 128 125 121 114 109 105 101 97 91 84
62 63 64 64 69 70 72 79 84 84 87 90 92 95 97 99 102 103 103 103 104 107 111 115 120 122 125 126 126 130 131 129 129 127 124 119 111 105 102 98 94 88 81 74
68 72 73 71 76 75 79 85 89 90 90 92 93 96 99 99 100 102 103 106 109 113 115 119 121 122 125 127 129 129 127 127 125 122 116 109 103 99 95 91 86 79 69 64
70 72 74 76 78 78 84 89 87 88 87 93 93 97 99 101 102 107 108 112 115 117 118 118 120 122 126 128 127 125 125 124 120 113 107 101 96 91 87 80 73 67 60 52
77 78 78 78 78 78 88 87 87 86 88 91 96 100 103 106 107 111 112 114 115 115 117 119 121 124 124 124 122 122 120 116 109 104 99 95 89 83 75 69 63 57 49 42
84 84 86 86 86 85 92 92 90 91 94 97 99 103 106 109 111 111 111 113 113 115 117 120 121 122 121 119 118 117 111 106 102 97 92 86 81 73 67 60 52 46 40 36
85 88 90 91 93 93 97 98 98 98 99 101 101 105 107 109 108 108 109 111 114 117 119 120 121 119 117 115 112 106 102 98 94 89 83 78 72 64 56 50 43 37 31 25
83 88 88 90 92 98 101 99 101 100 98 98 97 102 107 107 107 109 112 114 117 118 119 118 115 114 113 109 103 98 93 90 86 80 76 69 62 54 46 40 34 28 24 20
86 90 89 89 88 88 91 93 96 96 95 95 99 104 108 110 112 114 114 116 117 116 113 111 111 109 105 99 96 90 86 82 77 74 66 58 51 45 38 32 26 22 17 13
94 93 95 89 96 92 95 101 104 105 105 104 107 110 112 112 115 115 114 112 109 108 108 106 102 98 94 90 86 81 77 74 70 65 58 48 41 35 28 23 18 14 9 5
100 98 100 95 104 104 101 106 110 111 111 113 114 113 111 109 105 105 105 105 104 103 101 97 92 90 85 81 76 72 69 65 61 55 46 37 31 24 18 14 10 11 15 17

GFSCGP_250_spd_045.txt.gz
Wind_Speed
60 57 54 55 54 54 54 53 52 53 55 56 57 59 62 63 64 65 67 68 69 71 71 70 70 68 67 66 64 61 59 59 59 62 64 68 70 74 76 77 80 83 87 91
60 59 60 59 59 60 61 62 61 61 64 64 65 67 70 70 71 71 70 70 71 71 71 70 68 67 66 64 62 61 62 62 64 65 67 71 75 77 79 81 84 88 91 93
59 60 61 61 62 64 64 63 64 65 67 67 69 69 71 71 72 71 72 72 72 71 69 68 67 65 64 61 61 63 64 65 66 70 74 77 80 81 86 92 95 99 101 103
60 61 61 61 61 63 64 68 68 68 68 67 71 67 73 72 73 73 73 71 71 69 68 67 67 64 61 59 61 62 64 69 73 76 79 83 84 91 97 100 103 104 106 108
58 62 63 63 64 65 65 66 67 67 68 68 70 71 72 74 74 72 70 70 68 67 67 67 66 62 59 60 63 68 71 75 79 83 86 89 94 99 102 107 108 110 111 112
55 57 59 59 61 62 63 64 65 66 68 68 68 69 70 70 70 69 68 68 68 67 67 67 64 61 62 66 71 74 78 83 86 89 95 99 101 107 109 111 112 113 113 115
53 55 55 54 55 57 59 61 62 62 63 65 63 64 68 66 67 67 67 67 66 66 66 66 64 66 69 73 78 81 83 87 93 98 101 106 111 113 114 115 114 116 118 121
51 51 51 52 53 54 56 57 58 58 60 60 58 61 62 65 66 66 66 66 66 67 67 68 70 73 77 81 84 87 92 96 100 105 110 115 118 119 118 117 120 122 126 129
49 49 51 52 53 54 55 55 56 56 57 57 59 59 62 65 67 67 67 67 68 69 69 71 76 80 84 87 91 95 99 103 109 113 117 120 122 121 120 124 127 130 132 130
49 49 50 51 53 53 54 55 57 57 59 58 60 61 63 65 69 69 68 68 70 72 74 78 82 86 89 93 97 102 107 111 115 118 121 120 120 123 126 131 134 134 131 131
47 48 51 51 53 53 55 57 58 59 59 60 60 63 65 68 69 69 69 70 74 76 80 85 89 92 95 99 105 109 113 116 118 118 118 120 125 128 133 135 135 134 132 128
46 48 50 52 53 54 56 57 59 60 61 61 65 61 69 70 70 69 70 72 77 79 85 88 92 96 102 109 112 114 116 116 117 118 122 126 130 134 135 134 135 133 128 126
48 49 51 52 53 54 55 58 61 63 63 66 65 65 68 69 72 69 75 81 85 88 90 94 98 105 111 113 115 115 115 116 121 124 128 132 134 135 134 135 132 129 126 121
45 48 50 52 52 56 59 62 64 64 65 66 65 70 73 77 75 76 80 86 92 95 98 102 107 110 113 114 114 114 118 122 126 130 132 133 133 135 136 131 128 125 119 114
47 50 52 54 56 58 60 63 66 68 72 71 69 75 80 80 84 88 91 94 98 102 105 108 110 112 113 113 116 119 123 127 130 131 131 132 136 136 131 128 124 117 112 106
53 54 57 59 61 63 63 69 72 74 75 75 77 79 82 87 93 97 100 101 105 107 108 110 111 112 114 118 121 124 128 130 129 129 133 135 135 129 127 122 117 112 106 101
61 63 63 64 68 70 71 75 79 79 80 82 84 89 89 93 96 101 103 104 107 106 108 110 113 117 120 123 125 126 126 126 129 133 135 133 128 126 119 115 110 104 98 95
66 67 66 66 71 71 74 77 79 79 80 84 85 89 93 96 97 102 102 105 107 110 113 116 119 121 124 124 123 122 126 129 132 132 130 128 125 118 112 107 101 95 90 83
73 74 75 75 76 76 82 85 84 84 84 89 91 94 98 100 102 108 107 110 112 115 117 119 120 121 120 120 121 125 128 131 129 126 126 123 116 108 102 96 92 86 77 71
76 78 80 81 81 81 87 90 90 91 92 92 96 101 102 105 108 113 113 115 116 117 115 114 115 117 119 123 125 128 127 123 121 122 118 111 105 98 90 87 81 72 66 60
81 82 84 85 84 83 90 92 92 93 94 98 100 101 103 104 106 108 109 108 108 109 111 114 117 121 124 126 125 123 119 119 117 112 105 99 94 88 83 76 69 64 58 53
81 83 84 86 89 89 92 93 95 95 95 100 100 100 100 100 102 104 107 108 110 114 117 119 121 123 122 120 117 116 115 110 103 100 92 88 84 81 73 65 61 56 50 44
87 91 90 91 85 94 93 93 96 99 100 101 103 103 104 104 106 108 111 112 115 117 119 119 118 116 116 115 112 108 102 96 93 86 83 78 75 68 62 57 52 47 41 35
87 90 90 88 92 94 96 97 98 100 101 103 107 109 111 112 114 114 115 115 115 114 112 112 112 111 108 106 100 93 90 84 79 76 72 69 63 57 53 46 42 37 31 26
92 89 88 92 97 97 102 104 105 104 108 111 113 115 117 118 117 114 112 111 109 107 105 103 102 100 95 91 87 82 76 72 70 66 63 58 52 47 41 36 29 23 18 14
98 95 98 99 102 103 103 108 110 110 111 113 114 113 113 112 110 106 103 100 98 97 95 93 91 88 85 80 75 69 66 63 59 57 53 48 42 36 30 25 17 13 9 10

GFSCGP_250_spd_048.txt.gz
Wind_Speed
57 57 51 54 57 56 58 58 60 63 56 59 59 59 59 63 62 63 64 65 69 73 76 77 77 76 77 75 73 73 71 69 68 66 63 62 63 65 66 68 71 75 77 79
57 55 56 55 56 55 55 56 57 58 58 59 59 64 64 69 70 71 73 73 76 78 78 78 78 78 77 74 73 71 69 69 67 64 62 63 65 67 69 73 77 80 82 85
62 60 63 61 62 64 65 63 64 63 63 66 67 69 70 71 73 74 75 75 75 76 76 77 79 78 77 73 71 71 70 69 66 64 64 66 69 72 76 81 84 87 90 92
61 64 65 64 65 67 67 67 68 68 69 71 73 72 75 78 77 76 76 76 77 78 78 79 78 76 75 72 72 72 72 70 68 67 68 70 73 77 82 86 88 92 97 100
61 63 63 63 64 65 65 67 68 68 70 70 74 73 76 78 78 77 78 78 79 79 79 77 75 73 72 72 73 72 72 71 71 71 74 76 79 84 87 90 94 98 103 108
62 66 65 65 66 66 67 69 71 71 73 74 74 76 74 73 78 76 76 76 76 75 73 72 73 73 74 73 73 74 74 73 75 76 80 84 88 90 92 96 101 105 110 113
64 65 65 65 66 66 67 67 68 67 69 68 67 69 74 70 71 70 72 72 72 71 72 72 73 73 74 75 76 76 76 77 80 83 87 91 94 96 99 104 110 113 115 116
61 61 63 63 63 62 63 64 65 63 65 66 65 67 67 68 68 69 69 68 69 70 71 74 75 75 77 78 78 79 81 83 87 90 93 97 101 104 109 115 117 118 116 115
54 54 58 58 59 60 62 62 63 62 65 64 66 65 64 65 67 71 71 69 69 71 74 76 78 78 79 81 81 82 84 88 92 96 100 104 108 113 119 120 120 117 119 123
53 51 55 56 58 59 59 61 62 62 63 63 63 66 66 66 68 71 72 71 71 74 77 79 81 81 82 83 84 87 90 93 98 103 107 111 116 120 121 120 120 123 126 129
51 51 54 55 57 56 58 59 61 62 63 62 63 66 71 70 71 71 70 70 73 77 78 79 82 84 85 86 89 92 96 100 104 109 114 118 119 120 120 123 126 129 132 133
47 49 51 53 55 54 56 59 60 62 63 64 67 60 68 74 73 74 73 74 78 79 80 79 81 84 88 91 94 98 102 106 112 116 117 118 119 122 126 129 133 135 131 128
44 46 48 49 51 54 57 60 62 63 61 63 67 67 70 74 73 72 75 77 79 84 87 87 88 90 94 98 102 105 109 114 116 116 118 121 125 128 131 134 133 128 133 134
45 48 49 51 52 52 55 58 61 64 64 66 69 68 73 77 76 78 80 81 83 84 89 94 96 98 101 104 107 110 112 115 118 121 124 128 130 132 130 127 132 136 133 126
47 49 51 54 56 57 58 62 65 65 68 69 69 76 79 79 84 89 92 93 92 96 97 98 101 104 106 108 110 113 117 121 124 126 128 130 128 125 128 134 135 130 126 123
51 52 54 56 59 60 61 66 69 72 75 76 77 79 83 85 87 90 93 95 98 100 101 104 106 108 110 113 116 118 121 124 126 126 124 123 127 132 135 133 129 126 122 114
57 59 58 61 66 67 70 72 77 77 79 81 82 85 89 92 94 95 99 101 104 107 109 111 112 114 116 117 118 119 121 121 121 123 126 130 132 131 128 127 125 119 113 106
63 65 65 66 71 71 74 77 80 80 84 86 87 91 95 97 99 100 102 103 106 109 111 113 114 115 116 117 117 117 120 123 125 128 131 130 126 125 124 121 115 109 105 98
65 66 68 70 71 73 78 82 83 83 86 88 91 94 97 100 101 105 105 106 109 111 112 113 113 114 116 117 119 121 125 127 129 128 126 124 123 118 112 107 104 99 94 88
72 73 74 76 75 76 83 84 87 89 89 91 94 96 100 100 101 104 109 109 108 112 113 114 115 115 116 118 121 124 125 123 123 123 120 114 110 104 101 96 92 87 82 76
81 83 84 86 85 84 88 90 94 94 93 96 99 102 102 103 105 105 108 108 110 111 113 114 116 119 120 118 117 118 118 117 114 111 106 101 98 94 89 84 80 76 70 64
82 84 85 87 89 89 92 97 99 98 100 103 105 106 105 104 106 108 107 109 111 113 116 116 115 116 116 114 112 109 107 105 103 98 94 91 87 81 76 73 69 63 57 56
78 83 83 87 83 87 89 89 91 94 96 98 100 103 105 106 110 113 115 116 116 116 113 112 111 108 107 105 102 98 95 91 88 85 82 79 75 69 66 63 57 52 51 49
86 88 89 90 92 97 97 100 102 103 105 107 109 110 111 111 113 113 112 111 109 107 105 104 100 96 95 94 90 86 80 78 76 73 70 67 63 60 56 51 47 45 44 40
90 92 90 88 92 95 97 102 105 106 110 113 113 113 112 111 110 108 105 103 100 98 96 93 90 89 86 82 77 72 69 67 66 62 60 55 53 50 46 42 42 40 36 30
93 93 93 95 97 98 101 104 106 105 106 109 109 107 105 103 101 101 97 94 92 90 88 85 84 80 75 71 67 63 61 58 55 54 49 47 43 39 37 35 34 29 24 21

GFSCGP_250_spd_051.txt.gz
Wind_Speed
57 57 54 54 56 54 51 53 55 60 58 60 62 61 62 64 66 63 64 62 65 67 73 74 77 79 80 79 78 78 79 79 79 76 74 71 70 70 69 68 66 65 64 65
55 52 55 58 57 57 55 53 55 55 57 59 59 60 61 62 67 66 68 71 74 76 78 77 78 82 81 79 81 81 80 80 76 74 72 71 72 72 71 71 70 69 69 71
57 56 56 55 55 56 56 57 58 60 58 60 60 61 64 67 71 72 74 76 76 78 80 81 81 83 83 82 81 79 76 75 73 73 73 73 74 74 74 75 75 75 76 77
60 61 61 60 60 61 61 62 64 65 64 67 71 68 77 74 76 78 79 79 79 80 81 82 82 82 81 79 75 74 74 74 75 75 75 75 76 76 78 78 79 80 82 84
67 68 68 66 67 66 66 69 70 72 71 70 75 69 74 76 78 78 79 80 81 81 80 78 77 75 73 73 73 74 75 76 76 77 78 78 79 80 81 81 82 84 87 90
63 65 66 65 67 68 68 70 70 70 71 71 74 74 74 76 78 78 79 79 79 77 76 74 74 73 73 74 75 76 76 78 79 80 81 82 83 83 84 85 85 87 90 95
64 65 67 66 68 69 69 72 73 73 75 74 74 74 75 74 75 76 77 77 75 73 73 72 73 74 75 75 77 78 80 81 83 84 85 86 87 87 87 87 88 91 96 102
65 67 71 70 71 71 73 74 74 73 73 73 74 74 73 73 73 72 74 74 73 72 71 73 77 78 78 79 80 81 82 84 86 88 89 89 90 89 90 93 96 101 105 109
64 65 69 69 68 69 70 71 71 71 72 71 72 72 71 72 73 72 71 70 71 72 75 79 80 80 81 82 84 86 87 89 91 91 91 92 92 94 97 102 106 110 114 116
57 57 62 64 64 64 65 67 68 68 68 68 70 70 70 72 71 70 69 69 71 74 76 77 80 83 85 86 88 88 88 89 90 91 93 96 99 103 106 110 114 116 118 120
51 53 56 57 58 60 62 64 65 66 66 65 65 68 71 71 70 70 71 74 77 78 79 82 84 87 89 89 90 91 90 91 92 95 98 102 106 109 112 115 118 120 123 125
48 50 52 55 57 59 61 62 62 62 63 64 66 64 71 71 71 72 75 77 79 81 83 84 86 86 87 88 90 93 94 96 99 101 104 107 111 113 117 120 123 124 124 124
45 47 48 51 53 55 57 58 60 59 59 64 66 69 71 73 74 77 79 81 83 83 84 86 89 91 93 94 95 96 99 102 104 106 109 112 115 118 120 121 122 121 122 123
47 48 48 49 49 51 54 58 60 62 63 65 67 70 77 76 77 79 81 82 84 86 89 92 95 96 99 101 104 105 106 109 111 112 114 116 118 119 120 120 120 122 125 125
45 46 48 51 52 53 55 60 64 65 67 66 69 72 76 80 85 88 89 89 91 95 98 101 103 105 106 107 108 111 112 114 115 115 116 117 117 118 119 124 126 127 125 123
48 49 51 54 54 56 58 63 66 68 70 70 73 77 80 85 89 92 94 95 98 101 103 106 107 108 109 110 110 110 112 114 114 114 115 118 120 124 127 126 125 123 119 115
53 54 55 57 61 62 64 68 71 74 76 77 80 83 87 90 92 94 96 98 100 102 105 106 107 109 111 112 114 115 115 114 115 118 120 123 125 124 123 122 117 113 111 105
60 62 62 64 66 67 69 71 73 76 76 79 82 85 91 93 93 96 99 101 104 107 110 112 113 115 117 116 115 115 117 119 121 123 122 121 119 117 115 112 108 103 98 96
65 65 66 66 66 68 73 76 79 82 84 88 91 96 98 99 99 104 106 108 109 109 111 113 114 114 114 116 118 119 119 119 119 118 116 113 111 107 103 100 95 92 91 86
68 69 72 73 75 77 81 84 86 88 90 91 92 95 96 96 94 96 100 103 104 106 109 111 115 117 117 116 115 115 115 113 110 109 107 104 102 99 92 89 87 84 79 73
75 77 80 82 83 83 86 87 86 88 90 91 93 96 98 100 103 104 108 110 111 113 114 114 114 114 115 113 111 109 107 104 103 103 99 94 89 85 82 80 76 72 66 63
80 84 85 86 87 86 86 87 89 93 94 97 100 102 103 106 108 110 112 113 112 113 113 112 110 107 107 104 102 101 99 98 96 93 87 82 77 75 72 70 65 60 56 52
82 87 86 87 85 88 89 92 97 98 99 102 102 104 106 106 107 109 110 109 109 108 104 102 101 99 98 96 94 93 91 87 84 78 72 70 68 65 62 57 52 49 45 41
87 91 89 90 93 97 101 103 103 103 104 105 105 105 105 103 104 105 104 102 102 99 95 92 90 90 91 89 86 82 79 75 71 67 65 61 57 55 47 46 42 37 35 36
94 93 91 88 92 96 97 97 99 102 104 105 105 104 103 103 104 103 103 101 99 95 91 89 87 86 81 78 77 72 67 65 63 58 53 49 45 41 38 33 30 28 29 28
92 88 90 91 93 96 99 101 103 103 103 103 102 101 102 101 100 100 100 98 94 91 87 84 81 76 74 71 66 62 59 56 53 47 41 37 35 31 26 23 22 23 21 21

GFSCGP_250_spd_054.txt.gz
Wind_Speed
65 62 62 61 64 62 61 63 63 62 63 65 66 66 69 70 71 70 67 67 70 71 71 71 73 75 78 80 81 82 82 82 83 85 83 81 78 75 73 71 69 69 69 70
64 60 58 59 60 59 56 56 58 60 57 51 53 58 61 60 64 65 65 67 69 72 75 76 80 82 83 83 84 85 85 85 83 83 80 77 76 75 75 74 74 74 73 74
63 63 62 62 59 58 58 59 60 60 61 60 59 61 64 65 66 68 68 71 74 78 83 85 83 83 83 85 86 86 84 82 80 79 77 76 76 77 77 78 78 79 79 80
62 63 64 61 59 60 60 59 57 57 61 62 64 60 70 69 72 74 76 78 81 83 83 84 85 85 86 85 83 81 80 80 78 78 77 77 77 78 80 81 83 84 85 85
64 63 63 64 63 61 62 64 64 65 63 64 70 67 74 78 79 80 82 81 81 83 84 84 84 84 84 84 82 81 81 80 80 80 79 79 80 81 82 84 85 86 88 90
67 66 65 66 67 66 66 67 67 68 71 72 75 74 77 79 81 81 82 83 84 83 84 83 83 82 83 83 82 81 81 81 81 82 83 82 83 84 85 86 88 89 90 91
64 67 71 70 70 69 71 75 75 74 74 75 76 76 77 79 82 84 85 84 84 83 83 83 84 84 84 82 82 82 83 85 85 86 86 86 88 89 90 91 91 91 92 94
66 67 69 70 71 73 74 74 74 73 74 76 79 79 81 82 82 83 82 83 83 84 85 86 85 83 82 83 84 85 86 87 88 90 91 93 93 93 93 93 94 95 97 98
66 68 70 71 71 72 74 75 77 77 78 78 80 81 82 81 80 80 80 80 81 82 81 81 82 83 85 86 87 87 88 90 92 93 93 93 94 95 96 98 99 100 103 105
62 65 69 71 72 73 74 75 76 78 78 78 78 79 79 79 78 77 78 78 79 79 80 81 83 84 87 89 89 90 92 92 92 94 96 97 98 100 103 105 108 110 112 114
54 56 60 62 64 66 67 69 70 72 73 73 73 75 75 76 77 76 75 77 78 80 81 83 84 87 89 91 92 92 94 95 97 99 101 103 106 108 110 111 113 114 115 117
51 53 56 58 60 63 64 66 67 68 69 69 71 70 73 72 72 72 75 78 80 82 83 84 87 89 91 92 94 96 97 100 103 105 107 109 110 110 111 113 114 116 118 119
49 51 53 56 58 60 62 63 64 64 65 67 67 70 70 71 72 75 78 79 81 81 82 86 90 93 94 96 98 101 104 106 107 108 110 112 113 114 115 116 115 115 115 116
49 51 53 54 55 57 60 63 63 63 63 64 66 69 74 73 76 79 79 80 81 84 88 92 95 99 100 101 103 106 109 111 113 115 116 115 114 113 112 113 115 117 119 119
49 52 54 55 56 57 58 61 63 64 66 65 68 71 75 79 81 82 83 84 87 90 92 95 100 103 105 108 110 112 114 114 113 112 112 114 116 118 119 119 119 118 118 114
50 52 53 55 56 58 60 62 65 66 67 69 72 75 78 82 86 87 87 88 91 95 99 104 107 108 109 109 109 109 111 115 117 118 119 119 120 119 119 118 115 112 109 108
52 53 55 57 61 62 63 66 68 70 72 75 79 81 83 86 88 90 93 96 99 102 105 107 108 108 108 110 113 116 117 118 118 119 120 120 118 115 113 112 109 105 102 99
58 60 61 62 65 66 69 72 73 76 78 80 81 85 88 91 95 98 100 101 102 103 106 107 109 112 114 116 119 119 119 119 119 118 117 115 113 111 108 105 100 95 92 91
65 67 68 70 71 71 74 75 75 77 81 85 89 92 95 97 99 103 104 104 105 105 107 111 114 116 117 118 118 119 118 114 114 114 113 111 108 105 100 92 88 87 84 81
66 67 68 70 71 70 75 79 82 86 88 92 94 97 100 102 102 102 105 106 108 112 115 116 116 116 117 116 115 114 113 110 108 107 106 103 100 90 85 83 80 77 74 70
72 74 78 78 78 77 83 86 90 92 93 95 97 99 100 101 102 103 106 109 112 112 112 113 114 113 112 111 110 107 106 103 101 99 97 92 84 79 76 74 71 66 64 60
77 80 82 83 84 84 88 92 94 94 95 96 97 100 103 104 105 107 108 108 110 110 111 111 110 109 108 106 102 99 94 92 91 89 83 79 74 70 68 64 59 55 52 48
83 87 85 86 86 90 91 93 96 98 100 101 100 101 100 101 104 107 108 109 110 109 108 107 106 105 102 98 94 89 86 83 83 78 73 70 66 61 56 51 48 45 40 36
88 89 88 87 91 92 94 96 95 96 97 99 100 101 102 103 105 106 106 105 104 103 103 103 101 98 96 92 85 82 77 76 72 67 64 60 56 50 43 40 37 33 29 27
82 78 79 81 86 87 89 89 91 93 95 96 98 99 100 101 101 101 102 102 101 100 100 98 93 89 84 80 77 74 69 65 62 58 53 48 43 37 33 30 26 21 21 21
74 74 77 79 84 87 87 89 90 90 91 92 92 92 94 95 96 98 98 98 97 96 92 88 83 78 75 72 69 64 58 55 52 48 41 36 31 28 23 19 15 15 15 17

GFSCGP_250_spd_057.txt.gz
Wind_Speed
71 69 66 69 66 62 61 61 61 64 65 65 66 70 71 69 71 71 72 73 70 68 69 67 70 73 75 78 80 82 86 85 85 84 85 85 85 82 78 77 75 73 73 72
69 69 68 67 65 66 64 61 60 61 62 61 65 67 70 70 69 70 68 70 71 74 75 74 75 77 79 83 86 87 86 87 88 88 87 86 84 81 80 78 76 75 75 76
67 67 68 67 66 64 64 63 64 64 66 65 63 58 63 66 65 65 68 70 71 73 76 77 80 83 86 89 88 89 90 91 90 89 86 85 83 81 80 80 80 80 80 80
66 66 65 65 66 64 61 62 61 63 62 59 61 57 66 65 68 69 71 73 74 77 83 86 88 89 88 88 91 93 92 91 89 88 86 84 82 82 82 82 83 85 85 85
65 65 65 66 67 66 62 62 62 63 64 64 66 64 68 72 74 74 74 76 81 86 88 89 88 90 92 93 94 92 91 90 88 87 86 84 84 84 85 86 87 88 89 90
64 64 65 65 65 65 66 66 67 66 66 66 70 71 73 75 76 78 80 85 87 86 88 90 92 94 94 94 92 92 90 89 88 87 87 87 88 88 89 89 89 91 92 94
63 62 63 65 66 66 66 68 69 69 72 73 74 74 78 80 82 85 88 86 87 88 91 94 95 94 93 92 91 90 89 89 87 88 89 90 91 92 92 93 94 95 95 97
63 64 64 65 66 67 72 72 72 72 74 76 77 78 82 85 88 86 87 89 91 93 94 94 94 92 91 90 90 89 89 89 90 91 92 93 94 95 96 96 97 99 100 101
64 66 67 68 69 69 71 73 76 79 80 81 83 84 83 85 86 89 91 92 92 92 91 90 90 89 88 88 88 88 89 91 92 93 94 96 97 98 99 101 104 105 107 108
64 65 68 70 71 73 74 76 78 79 79 80 82 84 86 87 89 90 89 88 88 88 88 88 87 86 86 87 89 90 91 93 94 95 96 99 101 103 106 108 110 112 114 117
62 64 67 68 70 72 73 75 77 79 80 81 80 82 83 84 84 83 82 84 86 86 85 85 85 85 87 89 91 92 93 94 97 99 102 105 107 109 112 115 117 118 117 117
58 59 62 64 66 67 68 69 70 72 72 73 76 75 79 79 79 79 81 82 83 83 83 83 85 87 90 91 92 94 96 99 101 104 107 111 115 118 119 119 118 117 118 119
57 58 60 61 62 64 65 66 67 67 68 70 72 74 74 75 76 79 81 82 82 82 83 86 89 91 93 95 97 99 101 104 108 112 115 118 120 120 118 118 120 121 121 119
56 58 58 58 58 59 61 63 64 65 67 68 72 74 76 75 78 79 80 81 83 84 86 89 93 96 98 100 102 106 109 113 116 118 119 120 119 120 122 123 121 119 116 113
53 54 55 55 56 58 61 63 65 67 70 70 73 75 76 79 81 82 83 84 86 89 92 95 98 100 103 106 110 113 115 117 118 120 120 121 125 125 122 119 116 116 114 110
53 55 56 58 59 60 62 65 67 68 69 71 73 75 78 81 84 86 88 89 91 93 96 100 104 107 110 113 115 116 117 119 119 121 124 125 123 120 117 116 113 112 108 105
54 55 56 56 60 60 61 66 68 71 73 76 79 81 82 85 88 91 92 94 96 99 103 107 111 113 116 117 116 117 118 121 124 123 122 120 118 115 113 110 107 103 101 99
55 57 58 60 63 64 67 71 74 76 79 82 84 86 88 90 92 96 98 100 104 107 110 112 114 115 116 117 119 122 122 121 120 119 117 116 113 110 106 105 100 97 93 90
62 63 64 66 68 69 74 76 79 82 84 87 87 89 91 93 97 102 105 107 109 111 112 114 115 118 121 121 119 119 119 118 118 116 113 111 109 105 100 96 91 88 85 79
67 69 71 72 72 73 78 81 84 86 87 90 93 95 97 100 101 104 107 111 113 116 119 120 120 118 118 119 118 117 116 114 112 110 109 107 100 92 89 86 82 78 72 67
71 73 76 77 77 78 84 85 88 90 91 92 95 98 100 102 104 107 111 114 115 115 116 117 117 116 115 114 113 111 110 108 106 105 100 93 86 83 81 76 71 64 60 54
76 78 79 80 81 82 86 89 92 93 95 97 99 102 103 104 105 106 107 108 109 109 110 112 112 112 110 108 107 105 104 100 95 92 86 82 78 75 70 64 59 52 47 46
80 82 82 84 86 89 89 90 89 89 88 88 90 91 91 94 98 101 103 106 107 107 108 109 109 107 105 103 97 93 90 85 83 82 76 73 70 64 57 51 47 43 39 36
75 75 73 74 77 78 78 80 82 82 84 85 86 87 91 94 97 100 102 103 101 102 103 103 101 98 94 90 85 82 80 79 77 73 67 63 59 51 45 40 37 34 32 30
69 69 69 71 76 76 77 78 79 80 82 85 87 89 91 93 96 96 95 94 94 94 94 94 92 87 84 82 80 80 76 71 67 61 56 52 44 41 34 32 27 27 25 24
64 68 71 72 75 76 77 78 79 79 81 83 83 86 89 89 90 92 94 96 98 98 96 94 90 82 80 78 76 71 64 58 55 51 44 38 34 29 26 22 21 19 20 20

GFSCGP_250_spd_060.txt.gz
Wind_Speed
74 71 67 70 70 67 68 68 64 65 65 67 67 69 71 69 70 71 71 73 74 74 76 78 79 77 76 75 77 79 81 82 85 88 87 85 87 87 86 86 84 81 78 77
71 71 69 68 69 68 66 65 65 61 60 60 63 66 69 68 67 68 71 72 72 73 73 70 72 74 78 81 82 83 85 88 89 89 88 90 90 89 88 87 84 82 80 79
70 70 70 67 66 64 66 63 63 62 63 64 63 64 69 71 70 69 71 72 71 70 71 75 79 81 83 85 86 87 92 91 90 92 93 94 92 91 90 88 86 84 83 82
67 66 67 68 67 66 62 63 64 65 65 65 67 62 70 70 68 68 69 68 72 75 76 78 81 85 87 89 90 95 93 93 95 96 96 95 93 91 90 88 87 86 85 85
66 65 64 66 66 65 66 66 67 68 67 64 66 63 67 69 68 70 73 75 77 80 84 87 87 88 90 93 97 95 96 97 99 98 96 93 91 90 90 89 88 87 88 89
66 65 64 64 65 65 66 66 65 65 66 65 67 67 68 70 71 76 78 80 83 86 88 89 92 94 96 98 97 99 100 101 98 96 94 93 93 91 90 89 89 90 92 94
66 65 64 64 65 65 66 66 67 66 68 69 70 70 74 76 77 79 83 86 88 91 93 95 97 98 100 100 101 102 102 99 96 94 94 93 92 91 91 92 92 94 95 96
64 64 64 65 65 64 66 68 70 69 70 70 72 73 76 79 81 83 85 88 90 93 95 97 99 100 102 102 101 99 97 96 95 95 94 93 92 93 94 95 97 98 100 102
63 63 64 64 64 65 67 67 69 69 69 70 75 80 83 85 87 88 90 92 92 95 98 99 100 100 99 97 96 95 95 95 95 94 94 95 96 97 98 100 103 104 106 108
63 62 63 64 65 67 68 69 71 72 71 73 76 79 82 86 88 90 91 93 96 98 98 97 95 95 93 93 94 95 95 95 95 96 98 99 100 102 104 106 108 111 114 118
62 62 64 64 66 67 69 72 73 74 76 77 79 82 85 88 89 90 91 93 93 93 92 92 91 92 92 93 94 94 95 96 99 100 102 104 107 109 111 112 115 119 121 123
62 63 64 65 66 67 69 72 74 75 76 78 79 79 83 83 84 85 86 87 87 87 87 88 90 92 93 93 95 96 99 100 102 105 108 110 112 113 116 120 123 125 125 123
61 62 63 64 65 67 68 69 71 72 74 75 75 78 78 79 80 81 82 83 84 85 88 89 90 92 94 96 99 102 104 106 108 111 112 115 118 121 124 125 125 124 125 125
59 60 61 62 63 65 67 69 70 72 73 73 74 75 77 76 78 79 81 83 85 86 87 90 93 96 99 102 106 108 110 111 112 116 119 122 125 125 125 125 127 125 120 118
56 59 60 61 62 65 67 69 69 70 71 70 72 75 78 79 80 81 82 83 85 88 92 95 99 103 106 107 109 111 113 116 119 122 124 124 125 127 127 122 121 118 112 108
56 58 59 61 62 61 63 67 68 69 71 72 73 75 76 78 81 84 86 89 92 96 99 102 104 106 108 111 114 117 119 121 122 124 126 126 123 120 119 115 111 107 104 102
54 55 56 58 60 61 63 67 68 69 71 73 75 77 80 84 87 90 93 96 98 100 102 106 109 111 114 116 118 120 122 123 125 123 120 119 116 112 109 105 102 100 98 97
53 55 55 56 59 60 65 68 70 73 77 80 81 84 86 89 92 96 97 99 103 106 109 111 113 116 117 119 121 122 119 117 116 116 115 113 110 107 103 99 98 95 91 89
55 57 59 62 64 66 72 74 77 78 81 84 86 88 90 94 97 103 104 107 109 111 113 114 115 116 115 114 114 114 114 115 115 113 110 107 104 100 96 93 89 86 85 81
62 64 67 68 69 71 76 79 82 84 85 89 92 94 97 100 101 105 108 111 113 113 112 110 110 111 113 113 112 112 112 111 108 106 105 100 96 90 85 83 82 80 74 69
67 69 72 73 74 76 80 83 86 89 90 92 95 97 99 101 102 101 102 104 106 106 107 109 109 110 109 110 111 110 108 105 104 101 95 88 85 81 79 77 73 66 62 58
70 71 73 74 76 77 81 83 86 88 88 88 88 88 91 93 96 100 103 104 104 104 105 106 108 109 107 106 105 105 103 98 90 84 82 81 78 74 69 63 59 54 50 46
61 61 62 66 69 72 73 77 80 82 85 87 89 90 92 95 97 100 102 103 103 104 106 106 107 104 105 105 103 99 90 83 80 77 74 70 65 60 54 51 49 45 37 33
49 52 56 60 64 67 71 74 78 81 83 85 87 90 92 96 99 100 99 98 99 102 102 102 100 101 104 102 93 83 78 75 72 68 62 57 54 49 44 41 38 31 25 23
40 42 45 50 55 59 63 68 69 72 75 79 83 86 90 92 93 94 97 98 99 99 98 96 95 95 95 91 83 77 72 65 60 54 51 48 43 38 35 30 23 18 16 16
39 42 43 46 50 50 54 59 61 63 67 72 77 81 84 85 88 91 94 94 93 92 91 90 88 86 84 78 71 65 59 54 50 46 41 37 33 31 25 19 14 13 12 13

GFSCGP_250_spd_063.txt.gz
Wind_Speed
72 70 67 71 70 73 73 70 69 68 65 63 65 68 69 66 70 71 72 73 74 76 77 78 78 77 75 76 75 75 75 77 80 81 85 87 86 87 92 91 91 91 92 90
73 70 69 69 68 68 68 72 74 72 68 67 60 63 66 65 65 67 69 71 74 76 79 79 78 77 77 76 77 79 80 82 84 87 90 90 91 93 95 94 95 95 93 89
74 72 69 68 68 67 66 64 64 65 67 65 65 67 71 70 70 70 71 72 72 74 76 78 80 80 80 80 80 82 84 87 92 92 93 95 96 98 98 98 99 96 91 86
74 71 67 65 64 65 63 65 66 66 67 68 69 66 71 69 69 72 73 74 75 75 75 77 79 81 81 84 85 88 90 92 94 96 97 99 103 101 102 101 98 93 89 87
74 71 68 65 62 63 64 63 63 63 66 67 71 70 72 71 69 71 73 75 76 75 77 79 81 83 87 89 89 91 95 97 99 100 101 104 104 104 102 97 94 91 91 89
72 68 65 64 62 61 63 64 64 64 62 60 64 66 67 71 74 76 76 77 79 80 82 83 85 88 91 94 96 98 98 99 102 104 106 107 106 101 98 95 93 92 91 91
71 68 66 63 63 62 62 63 64 65 67 68 70 70 71 72 74 76 78 80 82 83 85 88 91 94 96 97 98 100 102 104 106 106 106 104 102 99 97 95 94 93 93 95
69 67 66 64 62 61 62 64 65 65 67 68 70 71 74 76 78 80 82 84 85 88 91 93 96 97 98 100 101 103 105 106 105 104 102 100 99 98 97 96 96 97 98 99
67 66 64 63 63 63 64 65 66 65 65 67 71 74 76 78 80 81 82 84 86 88 91 94 96 98 100 101 102 102 102 101 100 99 99 99 98 98 99 100 102 103 105 107
65 64 65 65 64 64 64 65 66 67 67 70 72 74 77 79 80 82 85 87 89 91 93 95 96 97 98 98 98 98 98 97 98 99 100 100 101 102 104 106 109 111 113 114
64 64 64 64 64 65 65 66 68 68 69 70 73 75 79 80 82 84 86 88 89 90 91 93 93 93 94 94 94 95 97 99 99 100 101 104 106 108 111 113 115 116 117 119
62 64 64 65 65 66 66 67 69 69 70 72 74 76 80 81 82 83 84 87 88 88 88 88 89 90 91 94 96 97 98 99 102 104 107 110 113 115 117 118 120 122 123 123
59 62 63 64 65 66 68 69 71 72 73 75 75 78 77 78 81 83 84 84 84 84 86 88 89 91 93 94 96 99 102 105 107 110 113 117 118 119 121 123 124 124 123 120
57 60 62 63 65 67 69 71 71 72 73 71 75 77 79 78 79 80 80 82 84 85 87 88 90 93 95 99 102 105 108 111 114 116 118 120 121 123 124 122 120 118 117 116
54 57 59 61 62 64 66 68 69 70 72 72 73 75 77 78 79 80 81 83 85 87 89 92 96 99 103 106 108 111 113 116 118 120 121 122 121 119 118 117 117 116 113 110
49 52 54 56 59 61 64 66 67 68 70 71 73 75 77 79 81 82 84 88 91 94 97 100 104 106 108 110 113 116 118 119 120 120 118 116 116 117 116 113 112 109 105 103
49 51 53 56 58 59 61 65 66 68 70 72 73 76 78 82 86 89 92 95 98 101 104 106 108 110 113 115 116 117 117 115 114 115 115 114 113 112 112 108 103 101 98 96
48 49 51 54 57 59 62 64 66 68 73 76 79 83 85 89 93 95 98 101 104 107 109 111 111 113 113 113 111 111 113 114 114 113 112 111 110 108 104 102 98 94 91 88
47 49 51 54 57 61 66 68 71 74 79 81 85 88 91 95 99 102 105 107 108 109 109 108 107 108 110 111 112 111 111 111 110 108 106 104 101 97 97 94 88 84 82 79
51 55 58 60 62 66 70 73 76 80 84 88 91 94 97 99 100 102 102 103 104 105 106 108 110 111 111 111 111 110 109 108 108 106 101 100 95 93 88 82 78 75 72 68
56 59 62 65 67 70 73 76 79 80 81 83 85 87 89 92 95 98 100 103 104 104 104 106 107 107 108 109 109 108 107 106 104 100 96 93 88 80 75 71 67 62 59 53
50 51 54 56 57 58 61 63 66 69 73 74 76 77 79 84 87 91 95 97 97 97 100 103 106 105 102 101 99 101 101 99 95 90 87 82 75 68 62 60 56 51 45 41
38 39 42 45 45 47 49 52 55 57 61 65 70 72 76 81 83 89 95 99 99 100 100 100 99 98 98 96 94 93 91 89 85 81 75 68 62 56 51 47 43 37 33 30
26 30 34 36 37 41 45 49 51 54 56 59 65 67 76 68 71 73 82 88 94 95 95 95 93 91 89 86 85 83 81 77 74 67 61 55 50 44 38 35 32 28 25 21
31 26 30 32 41 42 48 51 55 58 62 63 65 71 74 70 69 69 74 78 80 83 82 84 84 82 79 75 73 72 69 63 59 54 48 44 37 33 29 26 23 18 14 13
28 35 30 36 42 47 54 64 68 64 70 77 79 80 81 75 67 69 71 73 72 74 75 73 71 70 68 66 63 58 54 51 49 43 38 34 28 23 21 16 10 8 9 12

GFSCGP_250_spd_069.txt.gz
Wind_Speed
83 79 72 68 67 69 65 61 60 59 56 54 62 69 76 74 74 69 70 69 66 62 59 62 63 66 69 72 75 76 78 81 83 83 85 85 84 85 86 86 87 88 87 87
82 81 78 74 70 67 67 65 63 60 60 56 57 66 73 75 74 76 73 70 68 68 69 70 73 76 78 80 79 81 84 84 83 85 86 87 88 88 90 91 91 92 95 98
79 85 80 75 71 69 67 68 66 64 63 61 63 63 65 65 74 73 74 76 79 81 82 82 83 85 85 86 86 86 86 87 88 89 89 90 92 92 94 96 97 99 99 100
82 76 79 77 73 71 70 70 69 67 67 68 68 67 69 67 71 72 74 76 77 79 80 83 85 80 79 81 83 85 86 87 88 90 94 95 97 98 99 101 100 100 99 100
83 82 78 77 75 73 69 73 72 70 68 70 73 73 74 74 74 74 75 75 77 79 79 79 81 82 84 86 85 84 87 90 93 97 99 101 103 105 104 102 101 102 102 102
86 84 82 77 76 73 71 74 74 71 69 67 70 73 75 71 70 70 71 71 75 77 80 83 85 84 84 85 88 91 94 97 100 102 103 103 103 103 103 103 104 105 104 102
91 88 86 82 78 74 72 75 74 72 69 68 67 69 69 74 76 77 77 77 76 77 80 83 86 90 92 95 96 97 97 99 100 101 104 104 104 106 105 106 106 106 106 105
78 81 80 77 75 72 72 74 74 70 70 67 67 67 66 70 71 72 74 77 79 82 85 87 89 91 93 95 95 97 99 101 102 104 104 106 106 107 108 108 108 107 106 106
67 68 70 70 70 70 71 72 73 69 69 68 67 67 66 70 70 71 73 75 78 80 82 85 89 91 93 95 98 100 103 105 106 107 108 108 109 110 111 111 110 109 109 108
59 62 63 65 66 67 70 72 70 68 68 69 70 70 68 73 73 73 76 79 81 83 86 89 91 94 97 100 103 106 108 109 110 110 111 112 112 112 112 112 112 111 111 111
50 52 55 57 59 62 65 68 68 68 69 70 72 72 72 75 76 78 81 83 85 88 90 92 96 99 103 105 108 109 110 112 112 114 115 115 115 115 115 115 115 115 116 118
41 44 46 49 53 57 62 65 67 68 68 72 74 75 76 78 80 82 84 87 89 92 95 98 101 104 106 108 109 111 112 114 115 116 117 117 117 118 120 121 123 124 125 126
37 39 41 43 47 52 59 64 67 69 70 74 76 77 78 81 83 86 88 90 93 97 101 103 105 108 108 110 112 114 115 116 118 119 121 122 124 125 127 129 130 130 129 127
35 37 39 40 43 46 52 58 64 69 72 74 77 79 78 83 84 87 91 94 97 100 103 105 106 108 109 111 113 115 117 121 123 126 128 130 131 131 131 129 127 125 122 118
36 38 40 42 44 46 49 52 57 62 67 70 75 77 81 82 86 88 92 96 98 99 101 103 104 107 111 114 119 122 126 126 129 130 128 127 125 124 121 117 112 111 111 110
34 37 40 43 45 47 49 52 55 58 63 67 71 75 80 83 86 88 90 93 96 97 100 104 108 113 117 119 121 122 124 125 124 122 122 119 117 112 111 110 108 105 100 99
30 33 36 39 42 45 48 51 52 56 60 64 68 72 77 80 82 85 88 92 97 101 105 107 108 110 109 113 115 120 120 120 118 115 111 111 110 111 106 96 92 87 85 85
28 31 34 37 39 42 45 49 53 56 60 64 67 72 76 79 83 87 92 95 94 94 95 97 98 103 104 112 117 121 121 122 121 118 115 116 105 97 94 91 83 81 79 77
30 33 35 39 42 44 48 50 53 57 61 64 70 74 79 82 83 81 82 82 85 88 94 96 101 100 106 108 112 118 119 120 117 114 109 99 93 87 83 81 77 72 70 68
33 35 38 41 42 45 47 51 56 61 64 66 66 65 65 67 70 73 77 81 86 89 87 86 90 93 96 96 103 107 101 98 93 91 88 86 84 80 76 71 66 63 61 58
35 39 41 44 46 49 52 52 50 46 43 48 52 58 63 69 75 80 79 83 79 84 86 92 93 90 89 91 92 90 88 86 83 80 78 75 70 65 62 59 56 52 50 47
39 40 41 42 41 34 33 32 34 39 43 50 56 62 65 68 73 78 78 75 80 87 91 94 94 90 88 86 83 81 78 75 72 69 66 63 59 56 53 49 46 44 42 40
27 26 23 23 17 9 11 18 28 34 43 48 52 59 64 68 72 74 76 79 86 92 93 93 91 87 84 79 75 71 68 66 62 58 56 53 51 47 44 40 38 37 34 31
11 12 14 12 15 18 25 31 37 39 45 51 58 63 69 73 78 75 87 91 95 99 97 94 87 83 78 72 68 66 63 59 54 51 49 46 43 39 36 33 31 28 25 23
13 17 14 19 24 24 29 30 32 40 49 60 68 73 75 79 89 93 95 96 100 101 96 89 82 77 70 66 63 60 55 50 47 45 43 39 34 31 29 25 22 20 18 18
17 20 18 15 18 25 29 35 42 50 59 69 75 78 83 90 97 100 102 104 108 102 92 83 77 71 65 61 57 53 47 44 42 39 35 30 27 25 21 16 14 12 14 17

GFSCGP_250_spd_072.txt.gz
Wind_Speed
79 76 70 67 66 66 67 66 65 66 61 59 59 57 59 51 47 62 66 69 69 70 70 72 72 74 75 74 76 77 80 80 81 85 89 91 91 90 88 88 86 87 89 90
85 77 74 73 73 72 70 66 66 65 60 61 58 57 59 65 63 58 65 66 72 77 75 72 68 66 68 70 76 82 87 89 92 91 91 89 86 87 89 90 90 91 93 95
84 79 79 78 74 71 71 66 68 66 63 63 57 58 60 62 56 56 55 62 65 72 74 73 77 79 80 82 85 86 87 88 89 88 88 90 92 93 92 91 96 97 99 100
84 78 79 77 72 76 76 73 70 64 65 65 62 62 60 57 57 57 63 66 68 67 68 73 76 78 78 80 84 85 85 85 88 89 93 95 95 95 96 99 101 103 105 107
83 82 80 79 74 76 76 74 74 70 66 65 63 64 69 62 67 58 65 66 69 72 75 76 79 80 83 83 81 84 85 88 92 96 98 98 101 104 106 107 106 105 106 106
82 80 81 79 76 75 75 79 77 72 68 65 70 65 66 64 72 75 78 77 77 79 80 80 83 80 81 83 85 90 91 95 96 99 102 104 105 105 105 106 105 107 109 109
82 81 80 79 77 73 71 77 78 76 73 71 70 68 64 69 72 73 77 80 83 84 85 87 89 89 91 92 95 95 97 98 100 102 103 103 103 105 108 109 110 111 112 113
86 84 80 77 75 72 69 69 74 74 74 71 70 71 69 71 72 71 73 75 78 82 84 85 87 88 89 90 92 94 95 98 100 102 104 106 108 110 112 114 116 116 116 117
81 84 83 78 76 74 71 69 70 70 71 71 71 70 69 71 73 73 74 75 78 80 82 83 84 86 89 91 94 97 99 102 105 107 110 112 114 115 118 119 120 120 121 121
65 75 80 81 77 73 72 72 73 71 71 72 73 71 67 72 75 75 77 78 80 82 84 86 88 91 94 97 100 101 104 107 111 113 116 118 120 122 123 123 124 125 125 124
50 60 70 77 78 76 75 75 74 73 71 70 71 71 69 70 75 77 79 81 83 85 88 90 93 97 99 102 105 108 111 114 117 119 122 123 125 127 129 129 129 129 128 129
40 45 51 58 64 66 68 67 68 66 63 66 68 70 69 70 74 77 80 84 86 89 93 95 98 101 104 107 110 113 116 119 121 124 126 128 129 130 131 133 135 135 133 130
32 35 37 38 41 46 50 52 53 55 58 62 64 66 69 72 76 78 81 85 89 92 95 97 102 104 107 110 113 116 119 120 123 125 129 130 133 135 136 136 134 131 128 126
22 24 26 29 33 34 38 42 46 50 54 57 62 64 70 72 78 80 83 87 90 94 97 100 103 106 108 110 113 117 118 121 124 126 127 129 130 131 131 132 127 122 122 120
23 24 26 28 29 30 34 37 41 45 48 51 57 60 64 66 71 76 80 84 87 89 92 97 100 104 107 110 114 116 119 119 120 121 123 124 125 126 126 124 124 124 122 110
23 23 24 26 28 31 34 37 39 42 46 49 53 57 61 65 68 72 75 80 85 88 92 95 98 103 108 110 110 110 112 115 116 119 123 123 125 128 128 126 122 117 106 94
20 23 24 26 27 30 34 37 40 42 45 48 52 56 61 64 68 73 76 81 84 90 95 98 98 96 97 103 107 112 116 114 118 122 124 125 125 120 119 111 104 94 87 82
14 17 20 24 25 28 33 34 38 41 45 49 53 57 62 66 71 74 79 84 85 84 83 87 91 96 102 103 105 108 108 114 119 122 121 110 110 101 95 88 83 79 73 69
19 21 23 25 28 30 35 36 40 44 48 51 56 61 66 70 74 74 72 74 76 82 87 93 96 97 95 96 98 102 105 106 105 103 100 95 89 83 78 74 71 67 62 59
24 26 27 30 32 34 36 39 42 46 50 55 58 60 61 60 63 66 70 75 79 86 88 88 86 89 91 94 91 91 94 92 89 87 82 79 75 72 69 65 62 58 54 49
27 28 29 31 33 35 39 42 46 47 46 49 50 52 54 58 64 68 74 72 79 86 85 88 85 92 95 92 89 85 84 82 79 76 72 70 68 66 62 57 52 49 45 41
27 30 32 34 37 38 38 36 38 38 42 44 48 52 57 63 66 72 74 79 86 88 88 96 99 100 95 89 85 80 77 74 71 68 65 64 62 58 52 48 43 40 37 34
29 28 29 29 27 26 27 29 29 35 38 44 49 52 50 60 68 73 76 81 86 93 97 100 101 98 93 85 79 75 73 69 66 62 60 58 54 48 43 38 35 32 29 26
21 19 15 15 17 20 25 27 31 38 41 43 41 49 57 64 68 74 80 87 96 102 105 105 103 97 87 80 76 72 69 65 59 56 53 51 46 39 34 30 28 25 22 20
7 7 11 13 14 21 24 28 33 27 32 39 46 53 62 66 73 79 85 93 100 104 109 107 98 90 80 76 72 68 63 58 52 49 47 43 37 31 27 24 21 18 17 17
4 8 14 18 20 19 24 26 25 31 36 44 51 57 63 68 75 84 87 95 104 109 110 104 91 82 77 72 67 62 56 51 45 43 40 34 28 22 20 18 14 13 14 16

GFSCGP_250_spd_075.txt.gz
Wind_Speed
83 80 74 68 63 66 67 67 65 63 60 62 63 61 61 61 62 62 63 66 69 65 64 63 68 68 66 61 67 68 73 76 74 75 78 83 87 89 90 88 88 88 87 87
87 82 75 72 71 71 72 68 65 63 61 61 63 64 64 60 57 55 56 59 62 63 57 65 68 69 71 74 76 79 79 80 81 82 84 84 84 87 88 87 89 91 91 94
83 80 81 78 74 72 73 70 65 64 62 61 63 63 61 59 56 55 57 60 65 66 66 69 72 69 69 69 71 77 83 85 86 84 85 87 88 89 90 91 94 96 97 99
84 85 84 82 77 73 70 70 69 67 62 64 63 61 65 64 62 62 65 61 67 69 63 61 62 63 71 75 76 81 82 83 86 89 91 91 91 93 95 99 101 102 104 108
81 84 83 81 75 74 74 71 71 70 71 66 63 65 66 64 63 65 65 63 64 66 65 68 62 61 68 74 75 81 82 85 88 91 95 97 98 100 103 104 104 106 108 108
77 82 86 81 79 80 79 76 76 75 71 66 71 68 64 65 65 66 67 70 71 72 69 71 75 75 80 86 89 93 94 95 96 99 102 104 106 107 106 105 105 106 107 109
79 80 81 82 81 79 79 79 79 75 71 68 70 68 68 71 67 67 68 69 69 70 74 78 82 87 91 94 95 96 97 97 98 98 98 99 101 105 107 109 111 112 113 114
80 78 77 78 78 79 78 76 74 72 71 68 69 71 73 73 71 71 70 72 72 74 77 78 80 84 87 89 91 93 95 98 99 101 103 105 107 109 112 114 116 118 120 122
78 79 74 75 76 77 76 75 74 73 71 68 66 68 71 73 75 76 74 75 76 77 80 81 82 85 88 91 93 96 99 101 104 107 110 111 113 115 117 119 121 124 125 126
66 75 76 73 72 74 73 75 72 71 70 67 67 63 65 69 73 75 75 75 78 80 80 81 83 86 90 93 97 100 103 106 109 112 115 117 119 120 121 124 126 128 130 132
48 62 72 75 74 72 72 72 70 69 67 67 66 61 62 64 66 70 73 76 78 78 80 81 84 88 92 96 99 103 106 110 113 116 119 120 121 123 126 128 131 133 135 135
30 43 54 66 72 74 73 72 70 68 66 67 66 63 65 66 68 73 74 72 74 77 80 82 87 90 93 98 102 106 109 111 112 114 117 121 123 125 129 132 134 134 133 131
20 26 33 43 54 64 69 71 70 69 67 67 65 66 66 68 66 64 65 70 74 78 81 85 88 91 95 98 100 102 104 108 112 115 118 121 122 123 124 127 130 132 130 131
15 15 21 27 34 43 52 60 63 66 66 65 64 61 56 56 57 61 64 68 71 75 78 82 85 88 92 95 98 102 106 110 113 114 113 114 119 122 125 128 131 132 132 129
10 14 15 17 20 23 27 33 38 41 41 43 41 45 49 49 53 56 60 64 67 71 76 81 85 90 94 98 102 105 107 105 107 112 117 121 123 126 127 129 130 130 125 121
14 13 16 18 18 19 20 22 24 27 31 34 36 39 41 46 51 57 61 66 70 74 79 82 87 91 95 97 98 99 101 108 113 113 115 118 122 125 126 128 127 126 116 105
16 14 15 16 17 18 18 19 21 25 28 32 37 42 45 49 54 59 65 69 74 78 82 87 89 87 89 93 97 102 108 112 114 111 113 118 122 122 122 120 110 101 94 83
10 10 12 11 11 14 16 18 21 25 29 35 39 44 49 53 58 64 68 72 76 79 80 81 84 88 95 101 106 104 100 101 106 107 112 116 117 111 102 95 89 84 75 70
9 9 9 11 12 18 18 21 27 31 33 38 42 46 51 56 62 66 69 69 71 74 80 85 91 95 94 95 97 95 95 100 103 105 102 99 93 88 84 80 77 69 64 59
13 14 16 18 19 23 24 29 32 35 37 39 45 51 55 56 56 58 63 67 75 81 86 87 90 90 93 97 96 97 97 98 96 92 87 84 80 76 72 70 63 58 54 50
19 20 21 24 26 28 28 31 34 37 40 43 41 42 47 51 55 60 65 72 75 77 80 88 92 94 97 100 102 100 93 88 87 84 79 74 69 65 63 58 52 48 45 41
24 24 23 26 27 28 31 33 32 31 30 32 37 40 49 54 60 66 64 68 73 80 87 93 94 94 98 101 98 95 87 83 80 76 69 65 61 57 53 48 44 40 37 35
21 23 26 27 27 25 20 17 19 24 30 37 41 47 54 53 58 63 72 77 81 85 88 90 95 98 101 100 96 90 83 78 73 67 62 57 53 48 44 40 37 33 31 29
23 20 20 15 9 9 11 14 22 28 32 37 39 43 47 56 65 70 73 80 86 86 87 91 97 102 103 99 90 83 76 70 64 60 54 49 44 40 36 33 29 26 24 21
17 13 9 5 5 10 15 18 22 25 31 39 44 47 53 59 65 71 75 81 84 88 92 97 100 103 99 90 84 76 69 63 57 52 47 41 37 33 30 25 21 19 17 15
14 8 2 6 13 18 20 19 25 29 33 38 44 51 57 62 67 71 77 80 85 90 93 102 102 98 89 84 79 70 63 56 50 44 38 34 30 27 21 17 15 13 13 15

GFSCGP_250_spd_078.txt.gz
Wind_Speed
81 74 66 62 61 67 63 61 66 67 66 67 66 63 61 65 64 67 65 66 65 65 66 65 69 72 75 76 77 79 77 79 79 78 78 79 80 82 85 87 88 87 86 87
81 72 69 69 63 68 69 68 64 65 66 64 64 66 67 65 64 63 65 65 62 61 63 67 66 70 70 73 74 74 75 76 76 78 81 83 85 86 87 87 87 88 91 92
75 78 77 73 71 70 71 68 64 64 65 66 65 65 66 64 65 67 70 66 62 63 62 64 64 68 68 69 71 73 72 69 72 77 79 81 82 85 86 88 89 93 96 102
72 80 80 75 74 72 72 70 66 66 67 66 68 65 65 64 64 66 67 63 60 58 60 61 62 65 71 71 74 73 66 73 74 71 79 82 81 86 93 97 101 104 107 108
71 73 78 78 75 75 73 70 68 70 70 70 67 64 67 64 65 68 67 64 65 65 66 66 67 69 72 73 73 77 79 84 85 90 87 94 94 101 104 105 107 107 107 108
69 73 73 77 77 73 73 71 71 73 73 69 68 69 65 65 67 67 68 67 66 66 68 70 73 75 78 79 80 81 83 86 92 96 100 104 108 109 108 107 108 109 110 111
70 71 72 73 77 77 77 74 76 76 73 65 70 67 65 68 70 70 70 68 68 70 71 73 74 76 77 79 81 83 85 87 91 95 99 103 105 107 109 110 112 114 115 117
67 70 72 75 75 75 77 78 79 77 73 75 72 65 65 65 67 69 69 70 72 75 77 78 79 80 82 85 87 89 92 95 97 99 101 103 105 107 109 112 115 118 121 123
67 78 77 75 75 75 74 77 79 77 76 73 71 70 66 68 70 71 71 72 76 79 80 82 84 86 88 89 91 94 96 98 100 101 102 103 105 108 111 114 118 121 122 123
56 71 73 71 71 71 71 74 76 77 75 73 70 68 67 67 68 68 69 71 72 74 77 80 82 84 87 89 92 94 97 99 100 102 104 106 108 111 114 116 117 119 123 125
41 55 65 68 69 67 67 67 70 73 73 72 69 66 66 65 65 68 70 71 71 70 72 74 79 83 87 89 91 94 96 98 101 103 105 107 109 111 114 117 120 123 125 126
25 36 50 62 67 68 66 65 66 66 67 68 65 62 63 63 65 67 69 70 71 73 76 80 83 83 84 86 89 93 95 97 99 101 105 109 112 116 120 123 122 124 127 129
17 23 32 43 56 64 68 66 65 64 63 62 62 61 62 63 65 66 68 70 72 75 78 79 77 80 82 84 86 89 93 97 101 103 108 110 112 111 115 121 126 130 134 137
12 12 16 25 36 47 55 61 64 65 63 61 60 62 63 65 66 68 71 73 74 72 70 71 73 76 79 83 87 92 95 100 103 104 105 107 110 114 121 123 125 128 131 134
12 12 10 10 16 23 30 40 49 55 58 59 61 62 62 62 61 62 63 61 60 61 65 69 74 77 81 86 91 94 96 95 97 102 109 114 117 116 120 123 125 129 132 129
10 12 12 12 14 15 17 20 24 27 31 34 36 39 41 43 44 46 50 53 59 63 67 71 76 81 85 88 89 90 96 101 105 105 108 111 113 115 119 123 123 120 117 111
15 12 14 14 14 15 15 15 16 18 20 21 23 26 31 36 41 45 49 54 61 65 70 74 75 76 78 82 90 96 99 102 106 108 111 112 114 115 116 114 110 104 98 92
13 12 12 12 12 12 13 14 14 15 17 21 25 27 32 37 43 48 52 58 63 64 65 66 70 79 88 90 94 96 99 103 107 110 111 111 113 111 105 99 94 89 84 78
12 12 11 11 12 12 12 11 15 17 20 25 28 33 37 43 47 51 55 54 56 61 67 74 80 85 89 93 95 100 105 107 110 112 113 107 100 95 91 88 82 76 70 64
13 12 11 10 10 11 10 15 19 22 27 30 32 36 41 44 46 47 51 57 64 70 75 78 83 86 92 99 104 104 107 109 111 111 104 94 87 84 80 75 68 63 58 52
12 11 11 12 14 15 19 23 25 27 29 33 35 33 33 37 43 50 57 63 69 71 75 79 84 89 96 101 105 107 108 108 105 96 88 83 78 73 69 62 56 51 47 43
14 14 15 19 20 23 22 24 27 30 29 24 25 30 37 42 48 52 56 61 64 66 71 78 87 92 99 101 103 105 103 96 89 85 79 72 67 63 56 51 45 40 38 35
19 19 20 20 21 23 24 25 22 17 17 22 28 33 38 42 45 50 53 54 59 70 75 82 88 94 99 105 104 99 91 86 82 76 68 62 57 50 45 39 35 33 30 28
18 18 21 22 20 20 16 13 12 16 20 20 25 33 38 43 48 47 55 62 69 72 77 85 94 100 107 103 98 88 84 78 71 65 58 52 46 40 35 31 28 26 24 22
17 21 18 20 16 13 7 10 13 16 21 25 29 34 39 42 49 56 60 67 71 78 87 96 102 107 107 98 88 82 76 69 63 56 48 42 36 31 28 25 22 20 17 17
19 18 19 16 8 3 5 9 12 16 20 25 30 34 37 48 56 57 63 69 76 86 94 105 107 110 101 90 83 76 69 60 52 45 39 33 28 25 21 18 15 13 14 16

GFSCGP_250_spd_081.txt.gz
Wind_Speed
76 76 74 72 65 63 66 65 64 66 68 62 59 59 59 56 57 60 60 58 63 66 66 70 71 69 68 70 73 75 76 77 77 75 76 78 81 82 83 84 87 88 89 91
68 64 70 73 71 64 63 63 62 64 67 67 65 62 63 60 58 57 58 58 58 60 63 66 67 68 68 69 70 73 75 77 77 78 80 80 80 83 85 82 83 79 84 86
61 61 68 70 70 65 58 56 57 63 68 68 68 64 63 63 63 63 63 63 62 63 63 64 66 67 68 68 71 73 75 77 77 77 79 80 78 77 77 87 86 89 91 91
59 62 64 68 69 64 60 61 62 59 65 66 66 65 65 63 62 65 66 65 65 66 67 68 68 67 68 69 70 70 72 74 76 78 80 81 81 82 86 88 94 97 99 101
60 66 64 68 68 69 68 65 64 58 60 67 64 59 62 62 63 67 66 63 64 66 67 68 69 70 71 72 73 75 77 79 81 83 84 87 88 90 92 95 98 100 102 104
57 63 61 65 68 72 70 67 63 64 62 62 64 62 63 62 66 66 65 65 66 66 67 69 71 72 73 74 75 77 80 83 85 89 91 93 95 96 98 100 103 105 108 111
50 60 62 65 67 69 71 67 67 67 62 59 63 63 63 66 67 66 66 67 66 66 67 68 70 72 75 77 79 80 83 87 91 94 96 97 99 101 104 107 109 111 113 114
45 53 62 61 63 66 69 70 68 66 64 63 68 63 63 67 67 66 67 67 68 68 69 71 73 75 77 79 81 83 87 91 93 95 96 98 100 103 106 109 110 112 112 113
39 49 59 62 61 64 66 69 70 68 67 68 66 63 64 66 67 67 66 66 67 68 69 72 75 78 79 80 81 83 85 87 88 90 94 98 101 104 107 108 108 109 110 112
41 49 56 62 63 62 63 64 68 69 73 70 67 66 66 68 68 68 67 68 70 71 73 75 77 78 79 80 81 84 86 88 92 96 99 101 103 103 103 105 107 109 113 115
33 44 51 64 65 64 64 64 64 66 70 67 67 67 70 71 70 70 70 72 72 72 72 75 76 77 79 81 84 87 90 93 96 98 97 98 99 102 105 107 111 112 111 112
23 32 42 53 60 62 61 61 63 63 64 63 63 64 67 68 70 70 71 72 72 71 73 74 75 77 80 82 85 89 93 94 91 91 95 99 102 105 106 107 108 113 116 118
16 22 29 38 49 59 62 64 61 60 61 59 58 59 60 60 63 65 66 67 67 69 71 73 76 79 82 86 87 85 84 86 91 94 97 98 99 103 109 112 113 116 118 120
12 17 21 26 34 44 53 57 58 57 57 55 53 56 58 59 60 61 63 65 66 68 71 75 78 80 78 76 76 82 86 90 92 91 95 100 105 108 111 113 116 119 121 123
13 13 16 17 21 28 35 42 50 54 55 56 58 59 59 59 60 61 63 65 67 69 68 65 64 66 70 75 80 83 81 83 89 95 100 102 105 111 117 120 121 124 124 122
7 8 12 12 12 14 19 24 29 36 41 46 50 53 53 54 55 55 55 52 50 50 52 57 64 68 73 75 72 80 84 89 93 99 101 105 112 119 120 120 118 117 115 113
7 10 10 12 12 14 16 17 18 20 22 25 28 29 31 31 31 33 36 39 44 50 56 62 67 68 65 73 79 83 87 92 94 98 104 111 116 122 121 114 110 108 103 98
13 12 12 12 14 13 13 13 13 13 13 15 17 20 22 24 28 32 39 44 50 54 57 55 59 64 70 75 80 85 88 94 102 108 113 118 118 113 109 104 99 95 90 85
14 13 12 11 13 12 13 14 15 16 16 16 16 18 22 28 33 38 43 46 43 46 52 58 64 69 73 78 83 89 97 100 108 115 111 108 104 99 94 90 86 82 77 73
17 14 13 14 14 13 12 14 13 12 12 15 20 25 29 33 37 36 34 40 45 51 56 62 66 71 76 80 88 94 103 107 113 112 103 96 91 88 83 79 74 69 65 60
21 20 17 14 12 9 10 10 11 16 21 23 25 29 31 26 29 33 37 43 48 54 57 65 71 76 81 87 96 102 109 116 111 99 91 87 82 77 72 67 63 58 53 48
19 16 13 11 11 12 14 17 19 22 23 26 27 20 22 26 32 38 42 45 52 59 64 72 77 82 90 95 102 108 117 110 96 89 83 77 71 66 61 56 52 47 42 38
18 15 14 15 17 18 18 18 22 24 24 19 17 20 26 31 35 38 45 49 57 62 68 73 80 87 95 103 108 116 112 95 87 80 74 67 60 55 49 44 40 36 33 27
20 18 18 19 16 19 21 20 22 20 13 14 17 25 27 31 36 42 46 52 58 65 73 77 85 93 100 106 113 109 94 84 76 69 62 56 50 45 40 35 30 25 21 20
23 18 20 22 20 21 19 17 13 11 12 15 19 24 27 32 36 43 49 57 63 68 77 83 90 95 103 106 115 97 85 75 67 60 53 47 41 35 30 25 20 17 16 17
18 21 22 21 20 18 15 12 7 10 11 15 21 24 30 32 42 48 56 62 67 75 82 88 96 99 105 108 111 90 77 66 58 52 44 38 32 26 20 16 14 13 15 18

GFSCGP_250_spd_084.txt.gz
Wind_Speed
72 69 65 73 74 73 79 71 64 64 68 68 60 58 57 57 54 53 57 59 59 59 57 55 60 62 63 65 64 65 68 73 75 73 74 78 79 78 79 81 81 82 84 86
56 56 62 64 68 69 76 73 65 60 63 66 63 55 57 61 59 57 55 56 59 59 61 62 64 65 66 68 67 66 67 69 69 72 76 77 79 80 82 83 84 84 86 88
42 49 55 60 63 65 70 72 67 61 60 64 65 62 58 59 56 56 58 58 56 54 56 60 62 62 63 63 61 61 66 68 71 72 75 77 80 81 83 84 85 87 89 91
37 44 49 58 60 62 66 71 69 62 61 66 66 62 62 63 61 57 60 60 60 59 58 61 61 63 65 65 64 66 68 70 71 74 77 80 82 84 87 90 92 95 96 98
30 40 48 57 60 62 67 68 69 68 64 63 64 62 60 61 62 62 63 64 61 60 63 65 66 67 69 70 70 71 72 74 77 79 82 84 86 87 89 91 92 94 97 98
26 36 46 57 59 59 63 69 71 70 63 55 59 58 57 59 63 64 63 62 61 61 64 65 66 67 68 69 71 72 74 76 77 80 83 85 87 88 90 93 94 96 96 97
21 33 44 56 56 58 63 69 68 65 55 47 55 48 51 58 62 64 63 64 65 65 64 65 65 67 69 71 72 74 76 78 81 83 84 87 89 90 93 95 96 98 100 103
18 28 42 51 52 55 60 63 62 60 55 53 57 48 54 58 62 62 62 62 62 62 62 63 66 67 69 71 73 76 77 79 83 86 89 90 91 92 94 97 100 102 104 106
17 28 38 48 50 50 55 56 58 58 57 56 54 53 58 59 59 60 60 61 61 62 64 65 67 70 71 72 73 77 81 83 86 87 87 89 92 94 97 99 102 104 101 101
20 26 37 46 50 48 49 55 54 56 58 58 56 57 60 61 59 59 60 61 62 64 64 65 68 71 73 75 78 80 83 85 86 87 90 92 95 98 101 100 96 99 102 104
14 21 31 41 49 50 48 51 53 54 57 59 59 61 62 61 60 59 60 61 62 64 66 69 72 75 77 79 81 82 82 84 87 91 94 96 98 96 93 96 98 101 106 109
5 13 25 37 47 53 51 49 50 52 55 55 59 64 61 60 59 60 62 63 65 67 70 73 74 76 78 78 78 80 83 86 89 92 93 90 89 92 94 98 103 107 107 107
1 5 8 29 41 50 54 53 52 53 53 52 53 57 57 59 60 62 62 63 63 65 66 67 69 70 72 74 78 81 84 86 87 84 85 89 92 96 99 100 101 104 107 112
1 6 11 20 24 35 47 53 54 52 51 50 50 52 53 53 54 55 57 59 60 60 60 62 65 69 72 75 78 78 77 77 81 85 89 91 94 95 99 102 104 111 119 124
1 5 9 14 20 26 33 42 48 51 52 52 51 52 52 52 53 53 54 55 57 59 62 65 65 66 67 66 67 71 76 79 81 84 87 92 96 100 104 112 117 123 125 126
3 7 9 9 15 18 25 31 36 42 47 51 53 55 54 55 55 55 56 58 57 56 55 54 53 54 58 63 69 72 73 76 81 86 89 93 98 105 111 115 121 123 120 119
4 3 8 10 13 11 13 19 23 28 32 37 41 42 44 46 45 43 41 39 38 39 41 45 51 56 60 60 64 70 75 80 85 87 91 97 101 108 115 118 114 113 111 105
10 7 6 6 8 9 13 12 12 14 17 18 18 18 19 21 22 24 27 31 35 39 45 50 51 51 56 63 70 73 78 84 90 94 101 106 109 111 114 108 104 100 96 91
14 11 13 11 10 9 10 11 10 10 10 12 14 15 17 19 21 26 30 36 40 43 42 44 47 53 60 65 73 79 86 92 95 100 105 109 110 108 102 96 92 87 82 77
13 13 12 11 9 9 12 12 12 12 12 13 13 15 18 22 26 30 35 35 32 35 40 44 51 59 68 74 79 85 91 95 100 104 105 106 103 96 90 86 80 75 68 62
15 15 14 13 10 10 12 10 10 11 12 14 17 21 23 25 29 26 25 27 33 38 43 51 58 67 73 80 85 90 94 101 104 108 105 99 92 85 79 74 67 61 55 49
20 19 18 17 14 13 12 11 11 15 18 20 22 23 24 21 19 21 24 30 36 43 50 56 63 71 78 85 90 93 101 104 106 104 97 89 81 74 68 61 53 47 41 36
23 22 20 18 15 15 13 14 17 20 21 23 22 19 15 15 19 24 28 36 41 46 54 61 69 76 84 90 92 99 102 107 104 94 85 78 70 63 55 48 41 35 31 28
26 25 23 22 18 19 19 17 20 22 22 20 16 12 13 17 23 27 33 39 47 53 58 66 73 82 89 95 99 103 106 103 92 81 74 66 60 51 44 38 33 27 24 22
31 29 25 25 20 21 19 21 21 21 16 14 10 10 14 20 24 29 37 44 49 55 62 70 80 88 95 98 101 103 101 90 79 71 64 57 48 42 35 29 24 21 20 20
35 32 27 26 20 22 22 22 22 16 15 9 8 12 18 22 28 35 39 45 53 60 66 76 84 91 99 99 103 101 91 78 70 61 54 47 40 32 25 21 19 18 21 23